Wetterdaten: Montag, 12.03.2018
Datum Zeit Temp. Aussen Temp. o. S. +5cm Feuchte Auss BlattFeu 1 Luftdruck Regen Sonnenschein Regendauer Solar Windben Empfang
12.03.2018 00:00 9,3 C 8,3 C 5,0 C 91 % 1 lf 991,5 hPa 0,0 l/m 0 min 0 min 0 W/m 4,5 km/h (1 Bft) 89,13 %
12.03.2018 00:02 9,3 C 8,3 C 4,4 C 91 % 1 lf 991,5 hPa 0,0 l/m 0 min 0 min 0 W/m 6,8 km/h (2 Bft) 13,33 %
12.03.2018 00:04 9,3 C 8,3 C 4,4 C 91 % 1 lf 991,5 hPa 0,0 l/m 0 min 0 min 0 W/m 6,8 km/h (2 Bft) 61,90 %
12.03.2018 00:07 9,3 C 8,3 C 4,4 C 91 % 2 lf 991,4 hPa 0,0 l/m 0 min 0 min 0 W/m 6,8 km/h (2 Bft) 61,90 %
12.03.2018 00:08 9,3 C 8,3 C 4,4 C 91 % 2 lf 991,4 hPa 0,0 l/m 0 min 0 min 0 W/m 6,8 km/h (2 Bft) 98,10 %
12.03.2018 00:10 9,2 C 8,3 C 4,4 C 91 % 2 lf 991,5 hPa 0,0 l/m 0 min 0 min 0 W/m 6,8 km/h (2 Bft) 100,00 %
12.03.2018 00:12 9,2 C 8,3 C 4,4 C 91 % 2 lf 991,4 hPa 0,0 l/m 0 min 0 min 0 W/m 9,0 km/h (2 Bft) 95,65 %
12.03.2018 00:14 9,2 C 8,3 C 4,4 C 91 % 2 lf 991,5 hPa 0,0 l/m 0 min 0 min 0 W/m 6,8 km/h (2 Bft) 97,87 %
12.03.2018 00:16 9,1 C 8,3 C 5,0 C 91 % 2 lf 991,4 hPa 0,0 l/m 0 min 0 min 0 W/m 6,8 km/h (2 Bft) 91,49 %
12.03.2018 00:18 9,1 C 8,3 C 5,0 C 92 % 2 lf 991,4 hPa 0,0 l/m 0 min 0 min 0 W/m 4,5 km/h (1 Bft) 95,74 %
12.03.2018 00:20 9,1 C 8,3 C 5,0 C 92 % 2 lf 991,3 hPa 0,0 l/m 0 min 0 min 0 W/m 6,8 km/h (2 Bft) 97,87 %
12.03.2018 00:22 9,1 C 7,8 C 4,4 C 92 % 3 lf 991,4 hPa 0,0 l/m 0 min 0 min 0 W/m 11,3 km/h (2 Bft) 95,65 %
12.03.2018 00:24 9,0 C 8,3 C 5,0 C 92 % 3 lf 991,4 hPa 0,0 l/m 0 min 0 min 0 W/m 9,0 km/h (2 Bft) 100,00 %
12.03.2018 00:26 9,0 C 8,3 C 5,0 C 92 % 3 lf 991,3 hPa 0,0 l/m 0 min 0 min 0 W/m 6,8 km/h (2 Bft) 100,00 %
12.03.2018 00:28 9,0 C 8,3 C 5,0 C 92 % 3 lf 991,4 hPa 0,0 l/m 0 min 0 min 0 W/m 11,3 km/h (2 Bft) 100,00 %
12.03.2018 00:30 8,9 C 8,3 C 5,0 C 92 % 3 lf 991,4 hPa 0,0 l/m 0 min 0 min 0 W/m 6,8 km/h (2 Bft) 100,00 %
12.03.2018 00:32 8,9 C 8,3 C 5,0 C 92 % 3 lf 991,5 hPa 0,0 l/m 0 min 0 min 0 W/m 11,3 km/h (2 Bft) 100,00 %
12.03.2018 00:34 8,9 C 8,3 C 5,0 C 92 % 3 lf 991,5 hPa 0,0 l/m 0 min 0 min 0 W/m 9,0 km/h (2 Bft) 100,00 %
12.03.2018 00:36 8,9 C 8,3 C 5,6 C 92 % 3 lf 991,4 hPa 0,0 l/m 0 min 0 min 0 W/m 6,8 km/h (2 Bft) 97,87 %
12.03.2018 00:38 8,9 C 8,3 C 5,6 C 92 % 3 lf 991,4 hPa 0,0 l/m 0 min 0 min 0 W/m 11,3 km/h (2 Bft) 100,00 %
12.03.2018 00:40 8,9 C 8,3 C 5,6 C 92 % 3 lf 991,4 hPa 0,0 l/m 0 min 0 min 0 W/m 9,0 km/h (2 Bft) 100,00 %
12.03.2018 00:42 8,9 C 8,3 C 5,6 C 93 % 3 lf 991,4 hPa 0,0 l/m 0 min 0 min 0 W/m 9,0 km/h (2 Bft) 100,00 %
12.03.2018 00:44 8,9 C 8,3 C 5,6 C 93 % 3 lf 991,4 hPa 0,0 l/m 0 min 0 min 0 W/m 11,3 km/h (2 Bft) 97,87 %
12.03.2018 00:46 8,9 C 8,3 C 5,6 C 93 % 3 lf 991,4 hPa 0,0 l/m 0 min 0 min 0 W/m 9,0 km/h (2 Bft) 95,74 %
12.03.2018 00:48 8,8 C 8,3 C 5,6 C 93 % 3 lf 991,3 hPa 0,0 l/m 0 min 0 min 0 W/m 6,8 km/h (2 Bft) 95,74 %
12.03.2018 00:50 8,8 C 8,3 C 5,6 C 93 % 3 lf 991,3 hPa 0,0 l/m 0 min 0 min 0 W/m 6,8 km/h (2 Bft) 97,87 %
12.03.2018 00:52 8,8 C 8,3 C 5,6 C 93 % 3 lf 991,3 hPa 0,0 l/m 0 min 0 min 0 W/m 9,0 km/h (2 Bft) 97,87 %
12.03.2018 00:54 8,8 C 8,3 C 5,6 C 93 % 3 lf 991,3 hPa 0,0 l/m 0 min 0 min 0 W/m 9,0 km/h (2 Bft) 97,87 %
12.03.2018 00:56 8,8 C 7,8 C 5,6 C 93 % 3 lf 991,3 hPa 0,0 l/m 0 min 0 min 0 W/m 11,3 km/h (2 Bft) 97,87 %
12.03.2018 00:58 8,8 C 7,8 C 5,6 C 93 % 3 lf 991,3 hPa 0,0 l/m 0 min 0 min 0 W/m 9,0 km/h (2 Bft) 95,65 %
12.03.2018 01:00 8,8 C 7,8 C 5,0 C 93 % 3 lf 991,4 hPa 0,0 l/m 0 min 0 min 0 W/m 6,8 km/h (2 Bft) 95,74 %
12.03.2018 01:02 8,7 C 7,8 C 5,6 C 93 % 3 lf 991,3 hPa 0,0 l/m 0 min 0 min 0 W/m 9,0 km/h (2 Bft) 95,83 %
12.03.2018 01:04 8,7 C 7,8 C 5,0 C 93 % 3 lf 991,3 hPa 0,0 l/m 0 min 0 min 0 W/m 11,3 km/h (2 Bft) 97,87 %
12.03.2018 01:06 8,7 C 7,8 C 5,6 C 93 % 3 lf 991,3 hPa 0,0 l/m 0 min 0 min 0 W/m 11,3 km/h (2 Bft) 95,74 %
12.03.2018 01:08 8,7 C 7,8 C 5,6 C 93 % 3 lf 991,3 hPa 0,0 l/m 0 min 0 min 0 W/m 9,0 km/h (2 Bft) 93,62 %
12.03.2018 01:10 8,7 C 7,8 C 5,0 C 93 % 4 lf 991,2 hPa 0,0 l/m 0 min 0 min 0 W/m 11,3 km/h (2 Bft) 97,83 %
12.03.2018 01:12 8,7 C 7,8 C 5,0 C 93 % 4 lf 991,3 hPa 0,0 l/m 0 min 0 min 0 W/m 11,3 km/h (2 Bft) 95,74 %
12.03.2018 01:14 8,7 C 7,8 C 5,0 C 94 % 4 lf 991,2 hPa 0,0 l/m 0 min 0 min 0 W/m 13,5 km/h (3 Bft) 93,62 %
12.03.2018 01:16 8,7 C 7,8 C 5,0 C 94 % 4 lf 991,2 hPa 0,0 l/m 0 min 0 min 0 W/m 11,3 km/h (2 Bft) 95,74 %
12.03.2018 01:18 8,6 C 7,8 C 5,0 C 94 % 4 lf 991,2 hPa 0,0 l/m 0 min 0 min 0 W/m 9,0 km/h (2 Bft) 97,87 %
12.03.2018 01:20 8,6 C 7,8 C 5,6 C 93 % 4 lf 991,3 hPa 0,0 l/m 0 min 0 min 0 W/m 11,3 km/h (2 Bft) 95,74 %
12.03.2018 01:22 8,6 C 8,3 C 5,6 C 94 % 4 lf 991,3 hPa 0,0 l/m 0 min 0 min 0 W/m 9,0 km/h (2 Bft) 97,83 %
12.03.2018 01:24 8,6 C 8,3 C 6,1 C 94 % 4 lf 991,3 hPa 0,0 l/m 0 min 0 min 0 W/m 9,0 km/h (2 Bft) 95,74 %
12.03.2018 01:26 8,6 C 8,3 C 6,1 C 94 % 4 lf 991,3 hPa 0,0 l/m 0 min 0 min 0 W/m 11,3 km/h (2 Bft) 93,62 %
12.03.2018 01:28 8,6 C 7,8 C 5,6 C 94 % 4 lf 991,4 hPa 0,0 l/m 0 min 0 min 0 W/m 11,3 km/h (2 Bft) 93,62 %
12.03.2018 01:30 8,6 C 7,8 C 5,6 C 94 % 4 lf 991,4 hPa 0,0 l/m 0 min 0 min 0 W/m 9,0 km/h (2 Bft) 95,74 %
12.03.2018 01:32 8,6 C 7,8 C 5,6 C 94 % 5 lf 991,4 hPa 0,0 l/m 0 min 0 min 0 W/m 6,8 km/h (2 Bft) 93,62 %
12.03.2018 01:34 8,6 C 7,8 C 5,6 C 94 % 5 lf 991,3 hPa 0,0 l/m 0 min 0 min 0 W/m 13,5 km/h (3 Bft) 95,74 %
12.03.2018 01:36 8,6 C 7,8 C 5,6 C 94 % 5 lf 991,4 hPa 0,0 l/m 0 min 0 min 0 W/m 11,3 km/h (2 Bft) 91,49 %
12.03.2018 01:38 8,6 C 7,8 C 5,6 C 94 % 5 lf 991,3 hPa 0,0 l/m 0 min 0 min 0 W/m 9,0 km/h (2 Bft) 93,62 %
12.03.2018 01:40 8,6 C 7,8 C 5,6 C 94 % 6 lf 991,3 hPa 0,0 l/m 0 min 0 min 0 W/m 6,8 km/h (2 Bft) 93,62 %
12.03.2018 01:42 8,6 C 7,8 C 5,6 C 94 % 6 lf 991,3 hPa 0,0 l/m 0 min 0 min 0 W/m 9,0 km/h (2 Bft) 95,74 %
12.03.2018 01:44 8,5 C 7,8 C 5,6 C 94 % 7 lf 991,3 hPa 0,0 l/m 0 min 0 min 0 W/m 4,5 km/h (1 Bft) 93,48 %
12.03.2018 01:46 8,5 C 7,8 C 5,0 C 94 % 7 lf 991,3 hPa 0,0 l/m 0 min 0 min 0 W/m 4,5 km/h (1 Bft) 95,74 %
12.03.2018 01:48 8,5 C 7,8 C 5,0 C 94 % 7 lf 991,4 hPa 0,0 l/m 0 min 0 min 0 W/m 4,5 km/h (1 Bft) 95,74 %
12.03.2018 01:50 8,5 C 7,8 C 5,0 C 94 % 7 lf 991,3 hPa 0,0 l/m 0 min 0 min 0 W/m 9,0 km/h (2 Bft) 95,74 %
12.03.2018 01:52 8,5 C 7,8 C 5,0 C 95 % 8 lf 991,4 hPa 0,0 l/m 0 min 0 min 0 W/m 6,8 km/h (2 Bft) 93,62 %
12.03.2018 01:54 8,4 C 7,8 C 5,0 C 94 % 9 lf 991,4 hPa 0,0 l/m 0 min 0 min 0 W/m 6,8 km/h (2 Bft) 93,62 %
12.03.2018 01:56 8,4 C 7,8 C 5,0 C 94 % 9 lf 991,4 hPa 0,0 l/m 0 min 0 min 0 W/m 4,5 km/h (1 Bft) 93,48 %
12.03.2018 01:58 8,4 C 7,8 C 4,4 C 94 % 9 lf 991,4 hPa 0,0 l/m 0 min 0 min 0 W/m 6,8 km/h (2 Bft) 93,62 %
12.03.2018 02:00 8,4 C 7,8 C 4,4 C 94 % 9 lf 991,4 hPa 0,0 l/m 0 min 0 min 0 W/m 6,8 km/h (2 Bft) 95,74 %
12.03.2018 02:02 8,4 C 7,8 C 4,4 C 94 % 9 lf 991,4 hPa 0,0 l/m 0 min 0 min 0 W/m 6,8 km/h (2 Bft) 95,83 %
12.03.2018 02:04 8,4 C 7,8 C 5,0 C 94 % 9 lf 991,4 hPa 0,0 l/m 0 min 0 min 0 W/m 4,5 km/h (1 Bft) 91,49 %
12.03.2018 02:06 8,3 C 7,2 C 5,0 C 94 % 9 lf 991,4 hPa 0,0 l/m 0 min 0 min 0 W/m 4,5 km/h (1 Bft) 93,48 %
12.03.2018 02:08 8,3 C 7,8 C 5,6 C 94 % 9 lf 991,4 hPa 0,0 l/m 0 min 0 min 0 W/m 4,5 km/h (1 Bft) 91,49 %
12.03.2018 02:10 8,3 C 7,8 C 5,6 C 95 % 9 lf 991,4 hPa 0,0 l/m 0 min 0 min 0 W/m 4,5 km/h (1 Bft) 93,62 %
12.03.2018 02:12 8,3 C 7,8 C 5,6 C 95 % 9 lf 991,3 hPa 0,0 l/m 0 min 0 min 0 W/m 4,5 km/h (1 Bft) 93,62 %
12.03.2018 02:14 8,3 C 7,8 C 6,1 C 95 % 9 lf 991,3 hPa 0,0 l/m 0 min 0 min 0 W/m 6,8 km/h (2 Bft) 95,74 %
12.03.2018 02:16 8,3 C 7,8 C 6,1 C 95 % 9 lf 991,3 hPa 0,0 l/m 0 min 0 min 0 W/m 4,5 km/h (1 Bft) 93,62 %
12.03.2018 02:18 8,2 C 7,8 C 6,1 C 95 % 8 lf 991,3 hPa 0,0 l/m 0 min 0 min 0 W/m 6,8 km/h (2 Bft) 95,65 %
12.03.2018 02:20 8,2 C 7,8 C 6,1 C 95 % 8 lf 991,3 hPa 0,0 l/m 0 min 0 min 0 W/m 9,0 km/h (2 Bft) 93,62 %
12.03.2018 02:22 8,2 C 7,8 C 6,1 C 95 % 7 lf 991,3 hPa 0,0 l/m 0 min 0 min 0 W/m 6,8 km/h (2 Bft) 100,00 %
12.03.2018 02:24 8,2 C 7,8 C 6,1 C 95 % 7 lf 991,2 hPa 0,0 l/m 0 min 0 min 0 W/m 6,8 km/h (2 Bft) 97,87 %
12.03.2018 02:26 8,2 C 7,8 C 6,1 C 95 % 6 lf 991,2 hPa 0,0 l/m 0 min 0 min 0 W/m 6,8 km/h (2 Bft) 97,87 %
12.03.2018 02:28 8,2 C 7,8 C 6,1 C 95 % 6 lf 991,2 hPa 0,0 l/m 0 min 0 min 0 W/m 6,8 km/h (2 Bft) 93,62 %
12.03.2018 02:30 8,2 C 7,8 C 6,1 C 95 % 6 lf 991,1 hPa 0,0 l/m 0 min 0 min 0 W/m 4,5 km/h (1 Bft) 95,65 %
12.03.2018 02:32 8,2 C 7,8 C 6,1 C 95 % 6 lf 991,2 hPa 0,0 l/m 0 min 0 min 0 W/m 4,5 km/h (1 Bft) 95,74 %
12.03.2018 02:34 8,2 C 7,8 C 6,1 C 95 % 5 lf 991,1 hPa 0,0 l/m 0 min 0 min 0 W/m 6,8 km/h (2 Bft) 97,87 %
12.03.2018 02:36 8,2 C 7,8 C 6,1 C 95 % 4 lf 991,1 hPa 0,0 l/m 0 min 0 min 0 W/m 6,8 km/h (2 Bft) 97,87 %
12.03.2018 02:38 8,2 C 7,8 C 6,1 C 95 % 4 lf 991,1 hPa 0,0 l/m 0 min 0 min 0 W/m 6,8 km/h (2 Bft) 97,87 %
12.03.2018 02:40 8,2 C 7,8 C 6,1 C 95 % 4 lf 991,1 hPa 0,0 l/m 0 min 0 min 0 W/m 6,8 km/h (2 Bft) 97,83 %
12.03.2018 02:42 8,2 C 7,8 C 6,1 C 95 % 4 lf 991,1 hPa 0,0 l/m 0 min 0 min 0 W/m 9,0 km/h (2 Bft) 97,87 %
12.03.2018 02:44 8,2 C 7,8 C 6,1 C 95 % 4 lf 991,1 hPa 0,0 l/m 0 min 0 min 0 W/m 11,3 km/h (2 Bft) 91,49 %
12.03.2018 02:46 8,2 C 7,8 C 6,1 C 95 % 4 lf 991,0 hPa 0,0 l/m 0 min 0 min 0 W/m 6,8 km/h (2 Bft) 93,62 %
12.03.2018 02:48 8,2 C 7,8 C 6,1 C 95 % 4 lf 991,0 hPa 0,0 l/m 0 min 0 min 0 W/m 6,8 km/h (2 Bft) 97,87 %
12.03.2018 02:50 8,2 C 7,8 C 6,1 C 95 % 4 lf 991,0 hPa 0,0 l/m 0 min 0 min 0 W/m 6,8 km/h (2 Bft) 95,74 %
12.03.2018 02:52 8,2 C 7,8 C 6,1 C 95 % 4 lf 991,0 hPa 0,0 l/m 0 min 0 min 0 W/m 2,3 km/h (1 Bft) 94,74 %
12.03.2018 02:54 8,2 C 7,8 C 6,1 C 95 % 4 lf 991,0 hPa 0,0 l/m 0 min 0 min 0 W/m 6,8 km/h (2 Bft) 100,00 %
12.03.2018 02:56 8,2 C 7,8 C 6,1 C 95 % 3 lf 991,0 hPa 0,0 l/m 0 min 0 min 0 W/m 9,0 km/h (2 Bft) 100,00 %
12.03.2018 02:58 8,3 C 7,8 C 6,1 C 95 % 3 lf 991,0 hPa 0,0 l/m 0 min 0 min 0 W/m 6,8 km/h (2 Bft) 95,74 %
12.03.2018 03:00 8,3 C 7,8 C 6,1 C 95 % 3 lf 990,9 hPa 0,0 l/m 0 min 0 min 0 W/m 9,0 km/h (2 Bft) 100,00 %
12.03.2018 03:02 8,3 C 7,8 C 6,7 C 95 % 3 lf 990,9 hPa 0,0 l/m 0 min 0 min 0 W/m 9,0 km/h (2 Bft) 93,62 %
12.03.2018 03:04 8,3 C 7,8 C 6,1 C 96 % 3 lf 990,9 hPa 0,0 l/m 0 min 0 min 0 W/m 9,0 km/h (2 Bft) 100,00 %
12.03.2018 03:06 8,3 C 7,8 C 6,1 C 96 % 3 lf 990,9 hPa 0,0 l/m 0 min 0 min 0 W/m 9,0 km/h (2 Bft) 100,00 %
12.03.2018 03:08 8,3 C 7,8 C 6,1 C 96 % 3 lf 990,9 hPa 0,0 l/m 0 min 0 min 0 W/m 6,8 km/h (2 Bft) 95,74 %
12.03.2018 03:10 8,3 C 7,8 C 6,1 C 96 % 3 lf 990,9 hPa 0,0 l/m 0 min 0 min 0 W/m 6,8 km/h (2 Bft) 97,87 %
12.03.2018 03:12 8,3 C 7,8 C 6,1 C 96 % 3 lf 990,9 hPa 0,0 l/m 0 min 0 min 0 W/m 6,8 km/h (2 Bft) 100,00 %
12.03.2018 03:14 8,3 C 7,8 C 5,6 C 96 % 3 lf 990,9 hPa 0,0 l/m 0 min 0 min 0 W/m 6,8 km/h (2 Bft) 100,00 %
12.03.2018 03:16 8,3 C 7,8 C 5,6 C 96 % 3 lf 990,9 hPa 0,0 l/m 0 min 0 min 0 W/m 9,0 km/h (2 Bft) 97,87 %
12.03.2018 03:18 8,3 C 7,8 C 5,6 C 96 % 3 lf 990,9 hPa 0,0 l/m 0 min 0 min 0 W/m 6,8 km/h (2 Bft) 100,00 %
12.03.2018 03:20 8,2 C 7,8 C 5,6 C 96 % 3 lf 990,9 hPa 0,0 l/m 0 min 0 min 0 W/m 9,0 km/h (2 Bft) 100,00 %
12.03.2018 03:22 8,2 C 7,8 C 5,6 C 96 % 4 lf 990,8 hPa 0,0 l/m 0 min 0 min 0 W/m 6,8 km/h (2 Bft) 100,00 %
12.03.2018 03:24 8,2 C 7,8 C 5,6 C 96 % 4 lf 990,8 hPa 0,0 l/m 0 min 0 min 0 W/m 6,8 km/h (2 Bft) 100,00 %
12.03.2018 03:26 8,2 C 7,8 C 5,6 C 96 % 4 lf 990,7 hPa 0,0 l/m 0 min 0 min 0 W/m 6,8 km/h (2 Bft) 97,87 %
12.03.2018 03:28 8,2 C 7,8 C 5,6 C 96 % 4 lf 990,7 hPa 0,0 l/m 0 min 0 min 0 W/m 6,8 km/h (2 Bft) 97,87 %
12.03.2018 03:30 8,2 C 7,8 C 5,6 C 96 % 4 lf 990,7 hPa 0,0 l/m 0 min 0 min 0 W/m 6,8 km/h (2 Bft) 97,83 %
12.03.2018 03:32 8,2 C 7,8 C 5,6 C 96 % 4 lf 990,8 hPa 0,0 l/m 0 min 0 min 0 W/m 6,8 km/h (2 Bft) 100,00 %
12.03.2018 03:34 8,2 C 7,8 C 6,1 C 96 % 4 lf 990,7 hPa 0,0 l/m 0 min 0 min 0 W/m 6,8 km/h (2 Bft) 100,00 %
12.03.2018 03:36 8,2 C 7,8 C 6,1 C 96 % 4 lf 990,7 hPa 0,0 l/m 0 min 0 min 0 W/m 11,3 km/h (2 Bft) 97,87 %
12.03.2018 03:38 8,2 C 7,8 C 6,1 C 96 % 4 lf 990,7 hPa 0,0 l/m 0 min 0 min 0 W/m 9,0 km/h (2 Bft) 95,74 %
12.03.2018 03:40 8,2 C 7,8 C 6,1 C 96 % 4 lf 990,8 hPa 0,0 l/m 0 min 0 min 0 W/m 6,8 km/h (2 Bft) 97,83 %
12.03.2018 03:42 8,2 C 7,8 C 6,1 C 96 % 4 lf 990,7 hPa 0,0 l/m 0 min 0 min 0 W/m 9,0 km/h (2 Bft) 100,00 %
12.03.2018 03:44 8,2 C 7,8 C 6,1 C 96 % 4 lf 990,7 hPa 0,0 l/m 0 min 0 min 0 W/m 11,3 km/h (2 Bft) 100,00 %
12.03.2018 03:46 8,2 C 7,8 C 6,1 C 96 % 4 lf 990,7 hPa 0,0 l/m 0 min 0 min 0 W/m 11,3 km/h (2 Bft) 97,87 %
12.03.2018 03:48 8,2 C 7,8 C 6,1 C 96 % 4 lf 990,6 hPa 0,0 l/m 0 min 0 min 0 W/m 9,0 km/h (2 Bft) 97,87 %
12.03.2018 03:50 8,2 C 7,8 C 6,1 C 96 % 4 lf 990,6 hPa 0,0 l/m 0 min 0 min 0 W/m 9,0 km/h (2 Bft) 100,00 %
12.03.2018 03:52 8,2 C 7,8 C 6,1 C 96 % 4 lf 990,6 hPa 0,0 l/m 0 min 0 min 0 W/m 9,0 km/h (2 Bft) 93,48 %
12.03.2018 03:54 8,2 C 7,8 C 6,1 C 96 % 4 lf 990,6 hPa 0,0 l/m 0 min 0 min 0 W/m 9,0 km/h (2 Bft) 97,87 %
12.03.2018 03:56 8,2 C 7,8 C 6,1 C 96 % 4 lf 990,7 hPa 0,0 l/m 0 min 0 min 0 W/m 9,0 km/h (2 Bft) 97,87 %
12.03.2018 03:58 8,2 C 7,8 C 6,1 C 96 % 4 lf 990,7 hPa 0,0 l/m 0 min 0 min 0 W/m 11,3 km/h (2 Bft) 93,62 %
12.03.2018 04:00 8,2 C 7,8 C 6,1 C 96 % 4 lf 990,7 hPa 0,0 l/m 0 min 0 min 0 W/m 13,5 km/h (3 Bft) 95,74 %
12.03.2018 04:02 8,2 C 7,8 C 6,1 C 96 % 3 lf 990,7 hPa 0,0 l/m 0 min 0 min 0 W/m 9,0 km/h (2 Bft) 100,00 %
12.03.2018 04:04 8,2 C 7,8 C 6,1 C 96 % 3 lf 990,6 hPa 0,0 l/m 0 min 0 min 0 W/m 9,0 km/h (2 Bft) 97,83 %
12.03.2018 04:06 8,2 C 7,8 C 6,1 C 96 % 3 lf 990,7 hPa 0,0 l/m 0 min 0 min 0 W/m 9,0 km/h (2 Bft) 97,87 %
12.03.2018 04:08 8,2 C 7,8 C 6,1 C 96 % 3 lf 990,7 hPa 0,0 l/m 0 min 0 min 0 W/m 11,3 km/h (2 Bft) 95,74 %
12.03.2018 04:10 8,2 C 7,8 C 6,1 C 96 % 3 lf 990,7 hPa 0,0 l/m 0 min 0 min 0 W/m 15,8 km/h (3 Bft) 95,74 %
12.03.2018 04:12 8,2 C 8,3 C 6,7 C 96 % 3 lf 990,7 hPa 0,0 l/m 0 min 0 min 0 W/m 6,8 km/h (2 Bft) 97,87 %
12.03.2018 04:14 8,2 C 8,3 C 6,1 C 96 % 3 lf 990,7 hPa 0,0 l/m 0 min 0 min 0 W/m 11,3 km/h (2 Bft) 95,74 %
12.03.2018 04:16 8,2 C 7,8 C 6,1 C 96 % 3 lf 990,7 hPa 0,0 l/m 0 min 0 min 0 W/m 9,0 km/h (2 Bft) 95,65 %
12.03.2018 04:18 8,2 C 8,3 C 6,7 C 96 % 3 lf 990,7 hPa 0,0 l/m 0 min 0 min 0 W/m 9,0 km/h (2 Bft) 97,87 %
12.03.2018 04:20 8,3 C 8,3 C 6,7 C 96 % 3 lf 990,8 hPa 0,0 l/m 0 min 0 min 0 W/m 6,8 km/h (2 Bft) 97,87 %
12.03.2018 04:22 8,3 C 8,3 C 6,7 C 97 % 3 lf 990,7 hPa 0,0 l/m 0 min 0 min 0 W/m 6,8 km/h (2 Bft) 95,74 %
12.03.2018 04:24 8,3 C 8,3 C 6,7 C 97 % 3 lf 990,7 hPa 0,0 l/m 0 min 0 min 0 W/m 6,8 km/h (2 Bft) 97,87 %
12.03.2018 04:26 8,3 C 8,3 C 6,7 C 97 % 3 lf 990,7 hPa 0,0 l/m 0 min 0 min 0 W/m 6,8 km/h (2 Bft) 93,62 %
12.03.2018 04:28 8,3 C 8,3 C 6,7 C 97 % 3 lf 990,7 hPa 0,0 l/m 0 min 0 min 0 W/m 9,0 km/h (2 Bft) 91,30 %
12.03.2018 04:30 8,3 C 8,3 C 6,7 C 97 % 3 lf 990,7 hPa 0,0 l/m 0 min 0 min 0 W/m 6,8 km/h (2 Bft) 95,74 %
12.03.2018 04:32 8,3 C 8,3 C 6,7 C 97 % 3 lf 990,6 hPa 0,0 l/m 0 min 0 min 0 W/m 4,5 km/h (1 Bft) 95,74 %
12.03.2018 04:34 8,3 C 7,8 C 6,7 C 97 % 3 lf 990,7 hPa 0,0 l/m 0 min 0 min 0 W/m 4,5 km/h (1 Bft) 95,74 %
12.03.2018 04:36 8,3 C 7,8 C 6,7 C 97 % 3 lf 990,6 hPa 0,0 l/m 0 min 0 min 0 W/m 4,5 km/h (1 Bft) 91,49 %
12.03.2018 04:38 8,3 C 7,8 C 6,7 C 97 % 3 lf 990,6 hPa 0,0 l/m 0 min 0 min 0 W/m 4,5 km/h (1 Bft) 93,48 %
12.03.2018 04:40 8,3 C 7,8 C 6,7 C 97 % 3 lf 990,6 hPa 0,0 l/m 0 min 0 min 0 W/m 6,8 km/h (2 Bft) 95,74 %
12.03.2018 04:42 8,3 C 7,8 C 6,7 C 97 % 3 lf 990,7 hPa 0,0 l/m 0 min 0 min 0 W/m 4,5 km/h (1 Bft) 95,74 %
12.03.2018 04:44 8,3 C 7,8 C 6,7 C 97 % 3 lf 990,6 hPa 0,0 l/m 0 min 0 min 0 W/m 6,8 km/h (2 Bft) 95,74 %
12.03.2018 04:46 8,3 C 7,8 C 6,7 C 97 % 3 lf 990,6 hPa 0,0 l/m 0 min 0 min 0 W/m 4,5 km/h (1 Bft) 95,74 %
12.03.2018 04:48 8,2 C 7,8 C 6,7 C 97 % 3 lf 990,6 hPa 0,0 l/m 0 min 0 min 0 W/m 4,5 km/h (1 Bft) 93,62 %
12.03.2018 04:50 8,3 C 7,8 C 6,7 C 97 % 3 lf 990,6 hPa 0,0 l/m 0 min 0 min 0 W/m 6,8 km/h (2 Bft) 95,65 %
12.03.2018 04:52 8,3 C 7,8 C 6,7 C 97 % 3 lf 990,7 hPa 0,0 l/m 0 min 0 min 0 W/m 4,5 km/h (1 Bft) 95,24 %
12.03.2018 04:54 8,3 C 7,8 C 6,7 C 97 % 3 lf 990,6 hPa 0,0 l/m 0 min 0 min 0 W/m 2,3 km/h (1 Bft) 93,62 %
12.03.2018 04:56 8,3 C 7,8 C 6,7 C 97 % 3 lf 990,6 hPa 0,0 l/m 0 min 0 min 0 W/m 6,8 km/h (2 Bft) 91,49 %
12.03.2018 04:58 8,2 C 7,8 C 6,7 C 97 % 3 lf 990,6 hPa 0,0 l/m 0 min 0 min 0 W/m 6,8 km/h (2 Bft) 89,36 %
12.03.2018 05:00 8,2 C 8,3 C 6,7 C 97 % 3 lf 990,6 hPa 0,0 l/m 0 min 0 min 0 W/m 6,8 km/h (2 Bft) 93,62 %
12.03.2018 05:02 8,2 C 8,3 C 6,7 C 97 % 3 lf 990,6 hPa 0,0 l/m 0 min 0 min 0 W/m 4,5 km/h (1 Bft) 95,65 %
12.03.2018 05:04 8,2 C 8,3 C 6,7 C 97 % 3 lf 990,6 hPa 0,0 l/m 0 min 0 min 0 W/m 4,5 km/h (1 Bft) 95,74 %
12.03.2018 05:06 8,2 C 8,3 C 6,7 C 97 % 3 lf 990,6 hPa 0,0 l/m 0 min 0 min 0 W/m 4,5 km/h (1 Bft) 93,62 %
12.03.2018 05:08 8,2 C 8,3 C 6,7 C 97 % 2 lf 990,6 hPa 0,0 l/m 0 min 0 min 0 W/m 2,3 km/h (1 Bft) 95,74 %
12.03.2018 05:10 8,2 C 8,3 C 6,7 C 97 % 2 lf 990,6 hPa 0,0 l/m 0 min 0 min 0 W/m 6,8 km/h (2 Bft) 95,74 %
12.03.2018 05:12 8,2 C 8,3 C 6,7 C 97 % 2 lf 990,5 hPa 0,0 l/m 0 min 0 min 0 W/m 6,8 km/h (2 Bft) 89,36 %
12.03.2018 05:14 8,3 C 8,3 C 6,7 C 97 % 2 lf 990,6 hPa 0,0 l/m 0 min 0 min 0 W/m 6,8 km/h (2 Bft) 95,65 %
12.03.2018 05:16 8,3 C 8,3 C 6,7 C 97 % 2 lf 990,6 hPa 0,0 l/m 0 min 0 min 0 W/m 6,8 km/h (2 Bft) 93,62 %
12.03.2018 05:18 8,3 C 8,3 C 6,7 C 97 % 2 lf 990,6 hPa 0,0 l/m 0 min 0 min 0 W/m 6,8 km/h (2 Bft) 95,74 %
12.03.2018 05:20 8,3 C 8,3 C 6,7 C 97 % 2 lf 990,6 hPa 0,0 l/m 0 min 0 min 0 W/m 9,0 km/h (2 Bft) 96,61 %
12.03.2018 05:22 8,3 C 8,3 C 6,7 C 97 % 2 lf 990,6 hPa 0,0 l/m 0 min 0 min 0 W/m 6,8 km/h (2 Bft) 94,74 %
12.03.2018 05:24 8,3 C 8,3 C 6,7 C 97 % 2 lf 990,6 hPa 0,0 l/m 0 min 0 min 0 W/m 9,0 km/h (2 Bft) 95,74 %
12.03.2018 05:26 8,3 C 8,3 C 6,7 C 97 % 2 lf 990,6 hPa 0,0 l/m 0 min 0 min 0 W/m 4,5 km/h (1 Bft) 95,65 %
12.03.2018 05:28 8,3 C 8,3 C 6,7 C 97 % 2 lf 990,6 hPa 0,0 l/m 0 min 0 min 0 W/m 4,5 km/h (1 Bft) 93,62 %
12.03.2018 05:30 8,3 C 8,3 C 6,7 C 97 % 2 lf 990,7 hPa 0,0 l/m 0 min 0 min 0 W/m 6,8 km/h (2 Bft) 95,74 %
12.03.2018 05:32 8,3 C 8,3 C 6,7 C 97 % 2 lf 990,7 hPa 0,0 l/m 0 min 0 min 0 W/m 9,0 km/h (2 Bft) 91,49 %
12.03.2018 05:34 8,3 C 8,3 C 6,7 C 97 % 2 lf 990,7 hPa 0,0 l/m 0 min 0 min 0 W/m 6,8 km/h (2 Bft) 95,74 %
12.03.2018 05:35 8,3 C 8,3 C 6,7 C 97 % 2 lf 990,6 hPa 0,0 l/m 0 min 0 min 0 W/m 9,0 km/h (2 Bft) 96,49 %
12.03.2018 05:42 8,3 C 8,3 C 6,7 C 97 % 2 lf 990,6 hPa 0,0 l/m 0 min 0 min 0 W/m 9,0 km/h (2 Bft) 94,29 %
12.03.2018 05:44 8,3 C 8,3 C 6,7 C 97 % 2 lf 990,5 hPa 0,0 l/m 0 min 0 min 0 W/m 9,0 km/h (2 Bft) 93,62 %
12.03.2018 05:46 8,3 C 8,3 C 7,2 C 97 % 2 lf 990,5 hPa 0,0 l/m 0 min 0 min 0 W/m 9,0 km/h (2 Bft) 95,74 %
12.03.2018 05:48 8,3 C 8,3 C 7,2 C 97 % 2 lf 990,6 hPa 0,0 l/m 0 min 0 min 0 W/m 6,8 km/h (2 Bft) 93,48 %
12.03.2018 05:50 8,3 C 8,3 C 6,7 C 97 % 2 lf 990,6 hPa 0,0 l/m 0 min 0 min 0 W/m 9,0 km/h (2 Bft) 93,62 %
12.03.2018 05:52 8,4 C 8,3 C 6,7 C 97 % 2 lf 990,6 hPa 0,0 l/m 0 min 0 min 0 W/m 6,8 km/h (2 Bft) 97,87 %
12.03.2018 05:54 8,4 C 8,3 C 6,7 C 97 % 2 lf 990,6 hPa 0,0 l/m 0 min 0 min 0 W/m 9,0 km/h (2 Bft) 97,87 %
12.03.2018 05:56 8,4 C 8,3 C 6,7 C 97 % 2 lf 990,5 hPa 0,0 l/m 0 min 0 min 0 W/m 9,0 km/h (2 Bft) 95,74 %
12.03.2018 05:58 8,4 C 8,3 C 6,7 C 97 % 2 lf 990,6 hPa 0,0 l/m 0 min 0 min 0 W/m 6,8 km/h (2 Bft) 97,87 %
12.03.2018 06:00 8,4 C 8,3 C 6,7 C 97 % 2 lf 990,6 hPa 0,0 l/m 0 min 0 min 0 W/m 6,8 km/h (2 Bft) 93,48 %
12.03.2018 06:02 8,3 C 8,3 C 6,7 C 97 % 2 lf 990,6 hPa 0,0 l/m 0 min 0 min 0 W/m 4,5 km/h (1 Bft) 97,87 %
12.03.2018 06:04 8,4 C 8,3 C 6,7 C 97 % 2 lf 990,6 hPa 0,0 l/m 0 min 0 min 0 W/m 6,8 km/h (2 Bft) 95,74 %
12.03.2018 06:08 8,4 C 8,3 C 7,2 C 97 % 2 lf 990,6 hPa 0,0 l/m 0 min 0 min 0 W/m 9,0 km/h (2 Bft) 96,81 %
12.03.2018 06:10 8,4 C 8,3 C 7,2 C 97 % 2 lf 990,6 hPa 0,0 l/m 0 min 0 min 0 W/m 6,8 km/h (2 Bft) 97,87 %
12.03.2018 06:12 8,4 C 8,3 C 7,2 C 97 % 2 lf 990,7 hPa 0,0 l/m 0 min 0 min 0 W/m 9,0 km/h (2 Bft) 97,83 %
12.03.2018 06:14 8,4 C 8,3 C 6,7 C 97 % 2 lf 990,7 hPa 0,0 l/m 0 min 0 min 0 W/m 6,8 km/h (2 Bft) 100,00 %
12.03.2018 06:16 8,4 C 8,3 C 7,2 C 97 % 2 lf 990,7 hPa 0,0 l/m 0 min 0 min 0 W/m 6,8 km/h (2 Bft) 100,00 %
12.03.2018 06:18 8,4 C 8,3 C 7,2 C 97 % 2 lf 990,7 hPa 0,0 l/m 0 min 0 min 0 W/m 9,0 km/h (2 Bft) 100,00 %
12.03.2018 06:20 8,4 C 8,3 C 7,2 C 97 % 2 lf 990,7 hPa 0,0 l/m 0 min 0 min 0 W/m 6,8 km/h (2 Bft) 97,87 %
12.03.2018 06:22 8,4 C 8,3 C 7,2 C 97 % 2 lf 990,7 hPa 0,0 l/m 0 min 0 min 0 W/m 6,8 km/h (2 Bft) 97,83 %
12.03.2018 06:24 8,4 C 8,3 C 7,2 C 97 % 2 lf 990,7 hPa 0,0 l/m 0 min 0 min 0 W/m 9,0 km/h (2 Bft) 100,00 %
12.03.2018 06:26 8,4 C 8,3 C 7,2 C 97 % 2 lf 990,7 hPa 0,0 l/m 0 min 0 min 0 W/m 11,3 km/h (2 Bft) 100,00 %
12.03.2018 06:28 8,4 C 8,3 C 7,2 C 97 % 2 lf 990,7 hPa 0,0 l/m 0 min 0 min 0 W/m 9,0 km/h (2 Bft) 100,00 %
12.03.2018 06:30 8,4 C 8,3 C 7,2 C 97 % 2 lf 990,8 hPa 0,0 l/m 0 min 0 min 0 W/m 9,0 km/h (2 Bft) 97,87 %
12.03.2018 06:32 8,4 C 8,3 C 7,2 C 97 % 1 lf 990,8 hPa 0,0 l/m 0 min 0 min 0 W/m 9,0 km/h (2 Bft) 100,00 %
12.03.2018 06:34 8,4 C 8,3 C 7,2 C 97 % 1 lf 990,8 hPa 0,0 l/m 0 min 0 min 0 W/m 13,5 km/h (3 Bft) 100,00 %
12.03.2018 06:36 8,4 C 8,3 C 7,2 C 97 % 1 lf 990,8 hPa 0,0 l/m 0 min 0 min 0 W/m 9,0 km/h (2 Bft) 97,87 %
12.03.2018 06:38 8,4 C 8,3 C 7,2 C 97 % 1 lf 990,8 hPa 0,0 l/m 0 min 0 min 0 W/m 9,0 km/h (2 Bft) 97,87 %
12.03.2018 06:40 8,4 C 8,3 C 7,2 C 97 % 1 lf 990,8 hPa 0,0 l/m 0 min 0 min 0 W/m 9,0 km/h (2 Bft) 100,00 %
12.03.2018 06:42 8,4 C 8,3 C 7,2 C 97 % 1 lf 990,8 hPa 0,0 l/m 0 min 0 min 0 W/m 9,0 km/h (2 Bft) 97,87 %
12.03.2018 06:44 8,4 C 8,3 C 7,2 C 97 % 1 lf 990,8 hPa 0,0 l/m 0 min 0 min 0 W/m 6,8 km/h (2 Bft) 100,00 %
12.03.2018 06:46 8,4 C 8,3 C 7,2 C 97 % 1 lf 990,8 hPa 0,0 l/m 0 min 0 min 0 W/m 6,8 km/h (2 Bft) 97,83 %
12.03.2018 06:48 8,4 C 8,3 C 7,2 C 97 % 1 lf 990,8 hPa 0,0 l/m 0 min 0 min 0 W/m 9,0 km/h (2 Bft) 97,87 %
12.03.2018 06:50 8,4 C 8,3 C 7,2 C 97 % 1 lf 990,9 hPa 0,0 l/m 0 min 0 min 0 W/m 9,0 km/h (2 Bft) 97,87 %
12.03.2018 06:52 8,4 C 8,3 C 7,2 C 97 % 1 lf 990,8 hPa 0,0 l/m 0 min 0 min 0 W/m 9,0 km/h (2 Bft) 100,00 %
12.03.2018 06:54 8,4 C 8,3 C 7,2 C 96 % 1 lf 990,9 hPa 0,0 l/m 0 min 0 min 0 W/m 9,0 km/h (2 Bft) 97,87 %
12.03.2018 06:56 8,4 C 8,3 C 7,2 C 96 % 1 lf 991,0 hPa 0,0 l/m 0 min 0 min 0 W/m 6,8 km/h (2 Bft) 97,87 %
12.03.2018 06:58 8,4 C 8,3 C 7,2 C 96 % 1 lf 991,0 hPa 0,0 l/m 0 min 0 min 0 W/m 9,0 km/h (2 Bft) 100,00 %
12.03.2018 07:00 8,4 C 8,3 C 7,2 C 96 % 1 lf 991,0 hPa 0,0 l/m 0 min 0 min 0 W/m 6,8 km/h (2 Bft) 100,00 %
12.03.2018 07:02 8,4 C 8,3 C 7,2 C 96 % 1 lf 990,9 hPa 0,0 l/m 0 min 0 min 0 W/m 6,8 km/h (2 Bft) 97,87 %
12.03.2018 07:04 8,4 C 8,3 C 7,2 C 96 % 1 lf 990,9 hPa 0,0 l/m 0 min 0 min 0 W/m 6,8 km/h (2 Bft) 97,87 %
12.03.2018 07:06 8,4 C 8,3 C 7,2 C 96 % 1 lf 990,9 hPa 0,0 l/m 0 min 0 min 3 W/m 4,5 km/h (1 Bft) 97,87 %
12.03.2018 07:08 8,4 C 8,3 C 7,2 C 96 % 1 lf 990,9 hPa 0,0 l/m 0 min 2 min 5 W/m 9,0 km/h (2 Bft) 97,87 %
12.03.2018 07:10 8,4 C 8,3 C 7,2 C 96 % 1 lf 991,0 hPa 0,0 l/m 0 min 2 min 6 W/m 9,0 km/h (2 Bft) 91,30 %
12.03.2018 07:12 8,4 C 8,3 C 7,2 C 96 % 1 lf 991,0 hPa 0,0 l/m 0 min 2 min 7 W/m 9,0 km/h (2 Bft) 93,62 %
12.03.2018 07:14 8,5 C 8,3 C 6,7 C 96 % 2 lf 991,0 hPa 0,0 l/m 0 min 2 min 8 W/m 9,0 km/h (2 Bft) 95,74 %
12.03.2018 07:16 8,4 C 7,8 C 6,7 C 96 % 2 lf 991,0 hPa 0,0 l/m 0 min 2 min 9 W/m 9,0 km/h (2 Bft) 95,74 %
12.03.2018 07:18 8,4 C 7,8 C 6,7 C 96 % 3 lf 991,0 hPa 0,0 l/m 0 min 2 min 11 W/m 6,8 km/h (2 Bft) 97,87 %
12.03.2018 07:20 8,5 C 7,8 C 6,7 C 96 % 2 lf 991,0 hPa 0,0 l/m 0 min 2 min 12 W/m 9,0 km/h (2 Bft) 97,87 %
12.03.2018 07:22 8,5 C 8,3 C 6,7 C 96 % 2 lf 991,0 hPa 0,0 l/m 0 min 2 min 12 W/m 4,5 km/h (1 Bft) 93,48 %
12.03.2018 07:24 8,5 C 8,3 C 6,7 C 96 % 2 lf 991,1 hPa 0,0 l/m 0 min 2 min 12 W/m 6,8 km/h (2 Bft) 97,87 %
12.03.2018 07:26 8,5 C 8,3 C 6,7 C 96 % 2 lf 991,1 hPa 0,0 l/m 0 min 2 min 12 W/m 6,8 km/h (2 Bft) 97,87 %
12.03.2018 07:28 8,5 C 8,3 C 6,7 C 96 % 2 lf 991,1 hPa 0,0 l/m 0 min 0 min 12 W/m 9,0 km/h (2 Bft) 93,62 %
12.03.2018 07:30 8,5 C 8,3 C 6,7 C 96 % 1 lf 991,1 hPa 0,0 l/m 0 min 2 min 11 W/m 9,0 km/h (2 Bft) 95,74 %
12.03.2018 07:32 8,5 C 8,3 C 6,7 C 96 % 1 lf 991,1 hPa 0,0 l/m 0 min 2 min 12 W/m 6,8 km/h (2 Bft) 93,62 %
12.03.2018 07:34 8,5 C 8,3 C 6,7 C 96 % 1 lf 991,1 hPa 0,0 l/m 0 min 2 min 12 W/m 6,8 km/h (2 Bft) 95,65 %
12.03.2018 07:36 8,5 C 8,3 C 6,7 C 96 % 1 lf 991,1 hPa 0,0 l/m 0 min 0 min 14 W/m 6,8 km/h (2 Bft) 95,74 %
12.03.2018 07:38 8,5 C 8,3 C 6,7 C 96 % 1 lf 991,1 hPa 0,0 l/m 0 min 0 min 14 W/m 6,8 km/h (2 Bft) 95,74 %
12.03.2018 07:40 8,5 C 8,3 C 6,7 C 96 % 1 lf 991,1 hPa 0,0 l/m 0 min 0 min 14 W/m 6,8 km/h (2 Bft) 93,62 %
12.03.2018 07:42 8,5 C 8,3 C 6,7 C 96 % 1 lf 991,1 hPa 0,0 l/m 0 min 0 min 14 W/m 6,8 km/h (2 Bft) 95,74 %
12.03.2018 07:44 8,5 C 8,3 C 6,7 C 96 % 1 lf 991,1 hPa 0,0 l/m 0 min 0 min 14 W/m 6,8 km/h (2 Bft) 93,48 %
12.03.2018 07:46 8,5 C 8,3 C 6,7 C 96 % 1 lf 991,1 hPa 0,0 l/m 0 min 0 min 12 W/m 6,8 km/h (2 Bft) 89,58 %
12.03.2018 07:48 8,5 C 8,3 C 6,7 C 96 % 1 lf 991,1 hPa 0,0 l/m 0 min 0 min 12 W/m 9,0 km/h (2 Bft) 95,74 %
12.03.2018 07:50 8,5 C 8,3 C 6,7 C 96 % 1 lf 991,2 hPa 0,0 l/m 0 min 0 min 13 W/m 6,8 km/h (2 Bft) 97,83 %
12.03.2018 07:52 8,5 C 8,3 C 6,7 C 96 % 1 lf 991,2 hPa 0,0 l/m 0 min 0 min 14 W/m 6,8 km/h (2 Bft) 93,62 %
12.03.2018 07:54 8,5 C 8,3 C 6,7 C 96 % 1 lf 991,1 hPa 0,0 l/m 0 min 0 min 15 W/m 4,5 km/h (1 Bft) 93,62 %
12.03.2018 07:56 8,5 C 8,3 C 7,2 C 96 % 1 lf 991,1 hPa 0,0 l/m 0 min 0 min 18 W/m 6,8 km/h (2 Bft) 95,65 %
12.03.2018 07:58 8,5 C 8,3 C 7,2 C 96 % 1 lf 991,1 hPa 0,0 l/m 0 min 0 min 19 W/m 9,0 km/h (2 Bft) 95,74 %
12.03.2018 08:00 8,5 C 8,3 C 7,2 C 96 % 1 lf 991,1 hPa 0,0 l/m 0 min 0 min 22 W/m 6,8 km/h (2 Bft) 95,74 %
12.03.2018 08:02 8,6 C 8,3 C 7,2 C 96 % 1 lf 991,1 hPa 0,0 l/m 0 min 0 min 25 W/m 6,8 km/h (2 Bft) 95,74 %
12.03.2018 08:04 8,6 C 8,3 C 7,2 C 96 % 1 lf 991,1 hPa 0,0 l/m 0 min 0 min 25 W/m 6,8 km/h (2 Bft) 91,49 %
12.03.2018 08:06 8,6 C 8,3 C 7,2 C 96 % 1 lf 991,1 hPa 0,0 l/m 0 min 2 min 25 W/m 4,5 km/h (1 Bft) 95,74 %
12.03.2018 08:08 8,6 C 8,3 C 7,2 C 96 % 1 lf 991,1 hPa 0,0 l/m 0 min 0 min 25 W/m 6,8 km/h (2 Bft) 91,30 %
12.03.2018 08:10 8,6 C 8,3 C 7,2 C 96 % 1 lf 991,2 hPa 0,0 l/m 0 min 0 min 26 W/m 6,8 km/h (2 Bft) 93,62 %
12.03.2018 08:12 8,6 C 8,3 C 7,2 C 96 % 2 lf 991,1 hPa 0,0 l/m 0 min 0 min 29 W/m 9,0 km/h (2 Bft) 95,74 %
12.03.2018 08:14 8,6 C 8,3 C 7,2 C 96 % 7 lf 991,1 hPa 0,0 l/m 0 min 2 min 31 W/m 9,0 km/h (2 Bft) 95,74 %
12.03.2018 08:16 8,6 C 8,3 C 7,2 C 96 % 11 lf 991,1 hPa 0,0 l/m 0 min 2 min 33 W/m 11,3 km/h (2 Bft) 95,74 %
12.03.2018 08:18 8,6 C 8,3 C 7,2 C 96 % 12 lf 991,0 hPa 0,0 l/m 0 min 2 min 34 W/m 9,0 km/h (2 Bft) 95,74 %
12.03.2018 08:20 8,6 C 8,3 C 7,2 C 96 % 11 lf 991,1 hPa 0,0 l/m 0 min 0 min 35 W/m 9,0 km/h (2 Bft) 91,30 %
12.03.2018 08:22 8,6 C 8,3 C 7,2 C 96 % 11 lf 991,2 hPa 0,0 l/m 0 min 0 min 36 W/m 9,0 km/h (2 Bft) 93,62 %
12.03.2018 08:24 8,6 C 8,3 C 7,2 C 96 % 10 lf 991,2 hPa 0,0 l/m 0 min 0 min 39 W/m 13,5 km/h (3 Bft) 93,62 %
12.03.2018 08:26 8,6 C 8,3 C 7,2 C 96 % 9 lf 991,2 hPa 0,0 l/m 0 min 0 min 43 W/m 9,0 km/h (2 Bft) 93,62 %
12.03.2018 08:28 8,6 C 8,3 C 7,2 C 96 % 8 lf 991,1 hPa 0,0 l/m 0 min 0 min 47 W/m 9,0 km/h (2 Bft) 95,74 %
12.03.2018 08:30 8,7 C 8,3 C 7,2 C 96 % 6 lf 991,2 hPa 0,0 l/m 0 min 0 min 50 W/m 9,0 km/h (2 Bft) 97,83 %
12.03.2018 08:32 8,7 C 8,3 C 7,2 C 96 % 4 lf 991,1 hPa 0,0 l/m 0 min 0 min 53 W/m 11,3 km/h (2 Bft) 100,00 %
12.03.2018 08:34 8,7 C 8,3 C 7,2 C 96 % 3 lf 991,2 hPa 0,0 l/m 0 min 0 min 55 W/m 9,0 km/h (2 Bft) 97,87 %
12.03.2018 08:36 8,7 C 8,9 C 7,8 C 96 % 3 lf 991,2 hPa 0,0 l/m 0 min 0 min 56 W/m 11,3 km/h (2 Bft) 95,74 %
12.03.2018 08:38 8,7 C 8,9 C 7,8 C 96 % 2 lf 991,1 hPa 0,0 l/m 0 min 0 min 54 W/m 11,3 km/h (2 Bft) 93,62 %
12.03.2018 08:40 8,7 C 8,9 C 7,8 C 96 % 1 lf 991,2 hPa 0,0 l/m 0 min 0 min 53 W/m 11,3 km/h (2 Bft) 97,87 %
12.03.2018 08:42 8,7 C 8,9 C 7,8 C 96 % 1 lf 991,1 hPa 0,0 l/m 0 min 0 min 55 W/m 9,0 km/h (2 Bft) 97,83 %
12.03.2018 08:44 8,7 C 8,9 C 7,8 C 96 % 1 lf 991,1 hPa 0,0 l/m 0 min 0 min 61 W/m 13,5 km/h (3 Bft) 97,87 %
12.03.2018 08:46 8,7 C 8,9 C 7,8 C 96 % 1 lf 991,2 hPa 0,0 l/m 0 min 0 min 71 W/m 11,3 km/h (2 Bft) 97,87 %
12.03.2018 08:48 8,7 C 8,9 C 7,8 C 96 % 1 lf 991,2 hPa 0,0 l/m 0 min 0 min 87 W/m 11,3 km/h (2 Bft) 95,74 %
12.03.2018 08:50 8,8 C 9,4 C 8,3 C 96 % 1 lf 991,2 hPa 0,0 l/m 0 min 0 min 104 W/m 11,3 km/h (2 Bft) 97,87 %
12.03.2018 08:52 8,8 C 9,4 C 8,3 C 96 % 1 lf 991,2 hPa 0,0 l/m 0 min 0 min 115 W/m 15,8 km/h (3 Bft) 95,74 %
12.03.2018 08:54 8,8 C 9,4 C 8,3 C 96 % 1 lf 991,3 hPa 0,0 l/m 0 min 0 min 118 W/m 15,8 km/h (3 Bft) 93,48 %
12.03.2018 08:56 8,8 C 9,4 C 8,3 C 96 % 1 lf 991,3 hPa 0,0 l/m 0 min 0 min 114 W/m 22,5 km/h (4 Bft) 95,74 %
12.03.2018 08:58 8,9 C 9,4 C 8,3 C 96 % 1 lf 991,3 hPa 0,0 l/m 0 min 0 min 105 W/m 13,5 km/h (3 Bft) 95,74 %
12.03.2018 09:00 8,9 C 9,4 C 8,3 C 96 % 1 lf 991,2 hPa 0,0 l/m 0 min 0 min 96 W/m 13,5 km/h (3 Bft) 97,87 %
12.03.2018 09:02 8,9 C 9,4 C 8,3 C 96 % 1 lf 991,1 hPa 0,0 l/m 0 min 0 min 89 W/m 13,5 km/h (3 Bft) 93,62 %
12.03.2018 09:04 8,9 C 10,0 C 8,9 C 96 % 1 lf 991,2 hPa 0,0 l/m 0 min 0 min 84 W/m 11,3 km/h (2 Bft) 95,74 %
12.03.2018 09:08 9,0 C 9,4 C 8,9 C 96 % 1 lf 991,3 hPa 0,0 l/m 0 min 0 min 79 W/m 13,5 km/h (3 Bft) 95,45 %
12.03.2018 09:10 9,1 C 10,0 C 8,9 C 96 % 1 lf 991,3 hPa 0,0 l/m 0 min 0 min 79 W/m 9,0 km/h (2 Bft) 97,87 %
12.03.2018 09:12 9,1 C 10,0 C 8,9 C 96 % 1 lf 991,3 hPa 0,0 l/m 0 min 0 min 85 W/m 11,3 km/h (2 Bft) 95,65 %
12.03.2018 09:14 9,1 C 10,0 C 8,9 C 96 % 1 lf 991,3 hPa 0,0 l/m 0 min 0 min 95 W/m 9,0 km/h (2 Bft) 100,00 %
12.03.2018 09:16 9,1 C 10,0 C 8,9 C 96 % 1 lf 991,3 hPa 0,0 l/m 0 min 0 min 103 W/m 13,5 km/h (3 Bft) 95,74 %
12.03.2018 09:18 9,2 C 10,0 C 9,4 C 96 % 1 lf 991,3 hPa 0,0 l/m 0 min 0 min 107 W/m 9,0 km/h (2 Bft) 100,00 %
12.03.2018 09:20 9,2 C 10,0 C 9,4 C 96 % 0 lf 991,3 hPa 0,0 l/m 0 min 0 min 109 W/m 13,5 km/h (3 Bft) 100,00 %
12.03.2018 09:22 9,2 C 10,0 C 9,4 C 96 % 0 lf 991,2 hPa 0,0 l/m 0 min 0 min 111 W/m 13,5 km/h (3 Bft) 97,14 %
12.03.2018 09:24 9,2 C 10,6 C 9,4 C 96 % 0 lf 991,2 hPa 0,0 l/m 0 min 0 min 115 W/m 11,3 km/h (2 Bft) 97,83 %
12.03.2018 09:26 9,3 C 10,6 C 9,4 C 96 % 0 lf 991,2 hPa 0,0 l/m 0 min 0 min 122 W/m 11,3 km/h (2 Bft) 100,00 %
12.03.2018 09:28 9,3 C 10,6 C 9,4 C 96 % 0 lf 991,3 hPa 0,0 l/m 0 min 0 min 130 W/m 9,0 km/h (2 Bft) 97,87 %
12.03.2018 09:30 9,3 C 10,6 C 10,0 C 96 % 0 lf 991,3 hPa 0,0 l/m 0 min 0 min 141 W/m 11,3 km/h (2 Bft) 100,00 %
12.03.2018 09:32 9,4 C 11,1 C 10,0 C 96 % 0 lf 991,2 hPa 0,0 l/m 0 min 0 min 151 W/m 9,0 km/h (2 Bft) 100,00 %
12.03.2018 09:34 9,4 C 11,1 C 10,0 C 96 % 0 lf 991,2 hPa 0,0 l/m 0 min 0 min 155 W/m 11,3 km/h (2 Bft) 97,87 %
12.03.2018 09:36 9,5 C 11,1 C 10,0 C 96 % 0 lf 991,2 hPa 0,0 l/m 0 min 0 min 146 W/m 9,0 km/h (2 Bft) 95,65 %
12.03.2018 09:38 9,6 C 11,1 C 10,0 C 96 % 0 lf 991,3 hPa 0,0 l/m 0 min 0 min 129 W/m 9,0 km/h (2 Bft) 97,87 %
12.03.2018 09:40 9,6 C 11,1 C 10,0 C 96 % 0 lf 991,3 hPa 0,0 l/m 0 min 0 min 115 W/m 11,3 km/h (2 Bft) 97,87 %
12.03.2018 09:42 9,6 C 11,1 C 10,0 C 96 % 0 lf 991,3 hPa 0,0 l/m 0 min 0 min 104 W/m 11,3 km/h (2 Bft) 95,74 %
12.03.2018 09:44 9,7 C 10,6 C 10,0 C 96 % 0 lf 991,3 hPa 0,0 l/m 0 min 0 min 99 W/m 13,5 km/h (3 Bft) 95,74 %
12.03.2018 09:46 9,7 C 10,6 C 10,0 C 96 % 0 lf 991,3 hPa 0,0 l/m 0 min 0 min 102 W/m 11,3 km/h (2 Bft) 97,87 %
12.03.2018 09:48 9,7 C 10,6 C 10,0 C 96 % 1 lf 991,3 hPa 0,0 l/m 0 min 2 min 106 W/m 15,8 km/h (3 Bft) 100,00 %
12.03.2018 09:50 9,8 C 10,6 C 10,0 C 96 % 1 lf 991,4 hPa 0,0 l/m 0 min 2 min 99 W/m 20,3 km/h (4 Bft) 94,92 %
12.03.2018 09:52 9,8 C 10,0 C 9,4 C 96 % 1 lf 991,4 hPa 0,0 l/m 0 min 2 min 81 W/m 15,8 km/h (3 Bft) 94,29 %
12.03.2018 09:54 9,9 C 10,0 C 9,4 C 96 % 0 lf 991,4 hPa 0,0 l/m 0 min 0 min 71 W/m 18,0 km/h (3 Bft) 97,87 %
12.03.2018 09:56 9,9 C 10,0 C 9,4 C 96 % 0 lf 991,4 hPa 0,0 l/m 0 min 0 min 69 W/m 15,8 km/h (3 Bft) 93,62 %
12.03.2018 09:58 9,9 C 10,0 C 9,4 C 96 % 0 lf 991,4 hPa 0,0 l/m 0 min 0 min 66 W/m 13,5 km/h (3 Bft) 95,74 %
12.03.2018 10:00 9,9 C 10,6 C 9,4 C 96 % 2 lf 991,4 hPa 0,0 l/m 0 min 0 min 63 W/m 9,0 km/h (2 Bft) 97,83 %
12.03.2018 10:02 10,0 C 10,6 C 9,4 C 95 % 3 lf 991,4 hPa 0,0 l/m 0 min 2 min 63 W/m 9,0 km/h (2 Bft) 91,49 %
12.03.2018 10:04 10,0 C 10,6 C 9,4 C 95 % 1 lf 991,4 hPa 0,0 l/m 0 min 2 min 75 W/m 9,0 km/h (2 Bft) 93,62 %
12.03.2018 10:06 10,0 C 10,6 C 9,4 C 95 % 0 lf 991,4 hPa 0,0 l/m 0 min 0 min 104 W/m 11,3 km/h (2 Bft) 95,74 %
12.03.2018 10:08 10,1 C 10,6 C 9,4 C 95 % 0 lf 991,4 hPa 0,0 l/m 0 min 0 min 138 W/m 15,8 km/h (3 Bft) 93,62 %
12.03.2018 10:10 10,1 C 11,1 C 10,0 C 95 % 0 lf 991,5 hPa 0,0 l/m 0 min 0 min 159 W/m 9,0 km/h (2 Bft) 95,65 %
12.03.2018 10:12 10,1 C 11,1 C 10,0 C 95 % 0 lf 991,5 hPa 0,0 l/m 0 min 0 min 174 W/m 11,3 km/h (2 Bft) 97,87 %
12.03.2018 10:14 10,2 C 11,7 C 10,6 C 95 % 0 lf 991,5 hPa 0,0 l/m 0 min 0 min 187 W/m 15,8 km/h (3 Bft) 95,74 %
12.03.2018 10:16 10,2 C 12,2 C 10,6 C 95 % 0 lf 991,4 hPa 0,0 l/m 0 min 0 min 194 W/m 11,3 km/h (2 Bft) 97,87 %
12.03.2018 10:18 10,3 C 12,2 C 10,6 C 95 % 0 lf 991,4 hPa 0,0 l/m 0 min 0 min 215 W/m 9,0 km/h (2 Bft) 95,74 %
12.03.2018 10:20 10,3 C 13,9 C 12,2 C 95 % 0 lf 991,4 hPa 0,0 l/m 2 min 0 min 278 W/m 9,0 km/h (2 Bft) 96,55 %
12.03.2018 10:22 10,4 C 15,0 C 13,3 C 95 % 0 lf 991,4 hPa 0,0 l/m 2 min 0 min 536 W/m 11,3 km/h (2 Bft) 97,14 %
12.03.2018 10:24 10,5 C 14,4 C 13,3 C 95 % 0 lf 991,4 hPa 0,0 l/m 2 min 0 min 404 W/m 9,0 km/h (2 Bft) 97,87 %
12.03.2018 10:26 10,6 C 16,1 C 14,4 C 95 % 0 lf 991,3 hPa 0,0 l/m 2 min 0 min 319 W/m 11,3 km/h (2 Bft) 93,62 %
12.03.2018 10:28 10,8 C 15,6 C 15,0 C 95 % 0 lf 991,3 hPa 0,0 l/m 2 min 0 min 481 W/m 13,5 km/h (3 Bft) 95,74 %
12.03.2018 10:30 10,9 C 15,0 C 14,4 C 95 % 0 lf 991,4 hPa 0,0 l/m 2 min 0 min 277 W/m 11,3 km/h (2 Bft) 95,74 %
12.03.2018 10:32 11,0 C 14,4 C 13,9 C 95 % 0 lf 991,4 hPa 0,0 l/m 2 min 0 min 255 W/m 18,0 km/h (3 Bft) 95,74 %
12.03.2018 10:34 11,1 C 13,9 C 13,3 C 95 % 0 lf 991,4 hPa 0,0 l/m 0 min 0 min 224 W/m 18,0 km/h (3 Bft) 93,48 %
12.03.2018 10:36 11,2 C 13,9 C 13,3 C 95 % 0 lf 991,4 hPa 0,0 l/m 2 min 0 min 259 W/m 18,0 km/h (3 Bft) 93,62 %
12.03.2018 10:38 11,2 C 13,9 C 13,3 C 95 % 0 lf 991,4 hPa 0,0 l/m 2 min 0 min 267 W/m 18,0 km/h (3 Bft) 95,74 %
12.03.2018 10:40 11,3 C 13,9 C 13,9 C 94 % 0 lf 991,4 hPa 0,0 l/m 2 min 0 min 267 W/m 15,8 km/h (3 Bft) 95,74 %
12.03.2018 10:42 11,4 C 14,4 C 13,9 C 94 % 0 lf 991,4 hPa 0,0 l/m 2 min 0 min 297 W/m 22,5 km/h (4 Bft) 93,62 %
12.03.2018 10:44 11,5 C 13,9 C 13,3 C 93 % 0 lf 991,4 hPa 0,0 l/m 2 min 0 min 271 W/m 24,8 km/h (4 Bft) 97,87 %
12.03.2018 10:46 11,6 C 13,9 C 13,3 C 93 % 0 lf 991,4 hPa 0,0 l/m 2 min 0 min 253 W/m 15,8 km/h (3 Bft) 95,65 %
12.03.2018 10:48 11,6 C 13,9 C 13,3 C 92 % 0 lf 991,5 hPa 0,0 l/m 0 min 0 min 243 W/m 15,8 km/h (3 Bft) 95,74 %
12.03.2018 10:50 11,7 C 14,4 C 13,3 C 92 % 0 lf 991,5 hPa 0,0 l/m 0 min 0 min 237 W/m 13,5 km/h (3 Bft) 96,61 %
12.03.2018 10:52 11,8 C 13,9 C 13,3 C 91 % 0 lf 991,5 hPa 0,0 l/m 0 min 0 min 218 W/m 15,8 km/h (3 Bft) 100,00 %
12.03.2018 10:54 11,8 C 13,3 C 13,3 C 91 % 0 lf 991,4 hPa 0,0 l/m 0 min 0 min 209 W/m 22,5 km/h (4 Bft) 93,62 %
12.03.2018 10:56 11,9 C 13,3 C 13,3 C 90 % 0 lf 991,5 hPa 0,0 l/m 0 min 0 min 213 W/m 15,8 km/h (3 Bft) 97,87 %
12.03.2018 10:58 12,0 C 13,9 C 13,3 C 90 % 0 lf 991,6 hPa 0,0 l/m 0 min 0 min 221 W/m 22,5 km/h (4 Bft) 95,65 %
12.03.2018 11:00 12,1 C 13,3 C 13,3 C 89 % 0 lf 991,5 hPa 0,0 l/m 0 min 0 min 228 W/m 22,5 km/h (4 Bft) 95,74 %
12.03.2018 11:02 12,1 C 13,3 C 13,3 C 89 % 0 lf 991,6 hPa 0,0 l/m 0 min 0 min 224 W/m 18,0 km/h (3 Bft) 95,74 %
12.03.2018 11:04 12,1 C 13,3 C 12,8 C 88 % 0 lf 991,6 hPa 0,0 l/m 0 min 0 min 213 W/m 29,3 km/h (5 Bft) 100,00 %
12.03.2018 11:06 12,2 C 13,3 C 13,3 C 88 % 0 lf 991,6 hPa 0,0 l/m 0 min 0 min 201 W/m 29,3 km/h (5 Bft) 97,87 %
12.03.2018 11:08 12,2 C 13,3 C 12,8 C 88 % 0 lf 991,7 hPa 0,0 l/m 0 min 0 min 181 W/m 15,8 km/h (3 Bft) 100,00 %
12.03.2018 11:10 12,3 C 13,9 C 12,8 C 87 % 0 lf 991,7 hPa 0,0 l/m 0 min 0 min 193 W/m 18,0 km/h (3 Bft) 97,83 %
12.03.2018 11:12 12,3 C 13,9 C 13,3 C 87 % 0 lf 991,7 hPa 0,0 l/m 0 min 0 min 232 W/m 15,8 km/h (3 Bft) 97,87 %
12.03.2018 11:14 12,4 C 14,4 C 13,3 C 87 % 0 lf 991,6 hPa 0,0 l/m 2 min 0 min 267 W/m 15,8 km/h (3 Bft) 100,00 %
12.03.2018 11:16 12,4 C 14,4 C 13,9 C 86 % 0 lf 991,7 hPa 0,0 l/m 0 min 0 min 254 W/m 15,8 km/h (3 Bft) 100,00 %
12.03.2018 11:18 12,4 C 13,9 C 13,9 C 86 % 0 lf 991,7 hPa 0,0 l/m 0 min 0 min 232 W/m 24,8 km/h (4 Bft) 100,00 %
12.03.2018 11:20 12,5 C 13,9 C 13,9 C 86 % 0 lf 991,7 hPa 0,0 l/m 0 min 0 min 249 W/m 20,3 km/h (4 Bft) 98,28 %
12.03.2018 11:22 12,6 C 14,4 C 13,3 C 86 % 0 lf 991,7 hPa 0,0 l/m 2 min 0 min 270 W/m 22,5 km/h (4 Bft) 100,00 %
12.03.2018 11:24 12,6 C 13,9 C 13,9 C 85 % 0 lf 991,7 hPa 0,0 l/m 0 min 0 min 246 W/m 20,3 km/h (4 Bft) 97,87 %
12.03.2018 11:26 12,6 C 13,9 C 13,3 C 85 % 0 lf 991,7 hPa 0,0 l/m 0 min 0 min 230 W/m 24,8 km/h (4 Bft) 97,87 %
12.03.2018 11:28 12,6 C 14,4 C 13,3 C 85 % 0 lf 991,7 hPa 0,0 l/m 2 min 0 min 272 W/m 27,0 km/h (4 Bft) 97,87 %
12.03.2018 11:30 12,7 C 14,4 C 13,3 C 85 % 0 lf 991,6 hPa 0,0 l/m 2 min 0 min 284 W/m 24,8 km/h (4 Bft) 97,87 %
12.03.2018 11:32 12,7 C 15,6 C 14,4 C 85 % 0 lf 991,6 hPa 0,0 l/m 2 min 0 min 336 W/m 15,8 km/h (3 Bft) 97,83 %
12.03.2018 11:34 12,7 C 16,7 C 15,0 C 85 % 0 lf 991,6 hPa 0,0 l/m 2 min 0 min 326 W/m 13,5 km/h (3 Bft) 97,87 %
12.03.2018 11:36 12,8 C 16,7 C 15,0 C 85 % 0 lf 991,6 hPa 0,0 l/m 2 min 0 min 325 W/m 27,0 km/h (4 Bft) 95,74 %
12.03.2018 11:38 12,9 C 17,8 C 15,6 C 84 % 0 lf 991,6 hPa 0,0 l/m 2 min 0 min 325 W/m 27,0 km/h (4 Bft) 97,87 %
12.03.2018 11:40 12,9 C 17,8 C 16,1 C 84 % 0 lf 991,6 hPa 0,0 l/m 2 min 0 min 619 W/m 31,5 km/h (5 Bft) 97,87 %
12.03.2018 11:42 13,1 C 18,3 C 16,7 C 83 % 0 lf 991,6 hPa 0,0 l/m 2 min 0 min 486 W/m 27,0 km/h (4 Bft) 95,74 %
12.03.2018 11:44 13,2 C 18,3 C 16,7 C 83 % 0 lf 991,6 hPa 0,0 l/m 2 min 0 min 600 W/m 27,0 km/h (4 Bft) 91,30 %
12.03.2018 11:46 13,3 C 20,0 C 17,8 C 82 % 0 lf 991,6 hPa 0,0 l/m 2 min 0 min 553 W/m 15,8 km/h (3 Bft) 95,74 %
12.03.2018 11:48 13,4 C 20,6 C 17,8 C 82 % 0 lf 991,6 hPa 0,0 l/m 2 min 0 min 649 W/m 15,8 km/h (3 Bft) 95,74 %
12.03.2018 11:50 13,6 C 20,6 C 17,8 C 82 % 0 lf 991,6 hPa 0,0 l/m 2 min 0 min 621 W/m 24,8 km/h (4 Bft) 96,61 %
12.03.2018 11:52 13,7 C 20,6 C 17,2 C 81 % 0 lf 991,6 hPa 0,0 l/m 2 min 0 min 610 W/m 20,3 km/h (4 Bft) 97,14 %
12.03.2018 11:54 13,8 C 21,1 C 16,1 C 81 % 0 lf 991,6 hPa 0,0 l/m 2 min 0 min 617 W/m 18,0 km/h (3 Bft) 95,74 %
12.03.2018 11:56 13,9 C 21,7 C 16,1 C 81 % 0 lf 991,5 hPa 0,0 l/m 2 min 0 min 631 W/m 15,8 km/h (3 Bft) 95,65 %
12.03.2018 11:58 14,1 C 20,0 C 16,7 C 80 % 0 lf 991,5 hPa 0,0 l/m 2 min 0 min 631 W/m 38,3 km/h (5 Bft) 93,62 %
12.03.2018 12:00 14,2 C 22,2 C 16,7 C 79 % 0 lf 991,4 hPa 0,0 l/m 2 min 0 min 648 W/m 22,5 km/h (4 Bft) 95,74 %
12.03.2018 12:02 14,2 C 20,6 C 16,7 C 78 % 0 lf 991,5 hPa 0,0 l/m 2 min 0 min 613 W/m 24,8 km/h (4 Bft) 95,74 %
12.03.2018 12:04 14,3 C 21,7 C 16,1 C 78 % 0 lf 991,5 hPa 0,0 l/m 2 min 0 min 668 W/m 22,5 km/h (4 Bft) 95,74 %
12.03.2018 12:06 14,4 C 20,6 C 16,1 C 77 % 0 lf 991,5 hPa 0,0 l/m 2 min 0 min 722 W/m 29,3 km/h (5 Bft) 95,92 %
12.03.2018 12:08 14,5 C 22,8 C 16,1 C 77 % 0 lf 991,5 hPa 0,0 l/m 2 min 0 min 710 W/m 22,5 km/h (4 Bft) 95,65 %
12.03.2018 12:10 14,6 C 22,8 C 15,6 C 76 % 0 lf 991,4 hPa 0,0 l/m 2 min 0 min 704 W/m 31,5 km/h (5 Bft) 93,62 %
12.03.2018 12:12 14,7 C 21,1 C 15,6 C 75 % 0 lf 991,5 hPa 0,0 l/m 2 min 0 min 669 W/m 33,8 km/h (5 Bft) 97,87 %
12.03.2018 12:14 14,8 C 21,1 C 15,6 C 74 % 0 lf 991,5 hPa 0,0 l/m 2 min 0 min 697 W/m 27,0 km/h (4 Bft) 97,87 %
12.03.2018 12:16 14,9 C 20,0 C 15,6 C 72 % 0 lf 991,4 hPa 0,0 l/m 2 min 0 min 726 W/m 38,3 km/h (5 Bft) 93,62 %
12.03.2018 12:18 14,9 C 21,1 C 15,6 C 72 % 0 lf 991,4 hPa 0,0 l/m 2 min 0 min 723 W/m 20,3 km/h (4 Bft) 97,87 %
12.03.2018 12:20 15,1 C 22,8 C 15,6 C 71 % 0 lf 991,3 hPa 0,0 l/m 2 min 0 min 717 W/m 24,8 km/h (4 Bft) 96,55 %
12.03.2018 12:22 15,2 C 23,9 C 15,6 C 70 % 0 lf 991,3 hPa 0,0 l/m 2 min 0 min 665 W/m 15,8 km/h (3 Bft) 97,14 %
12.03.2018 12:24 15,3 C 23,3 C 15,6 C 70 % 0 lf 991,4 hPa 0,0 l/m 2 min 0 min 650 W/m 27,0 km/h (4 Bft) 100,00 %
12.03.2018 12:26 15,4 C 22,2 C 15,0 C 69 % 0 lf 991,4 hPa 0,0 l/m 2 min 0 min 668 W/m 29,3 km/h (5 Bft) 95,74 %
12.03.2018 12:28 15,4 C 21,1 C 15,0 C 68 % 0 lf 991,3 hPa 0,0 l/m 2 min 0 min 572 W/m 27,0 km/h (4 Bft) 97,87 %
12.03.2018 12:30 15,5 C 22,8 C 15,0 C 69 % 0 lf 991,3 hPa 0,0 l/m 2 min 0 min 563 W/m 20,3 km/h (4 Bft) 95,65 %
12.03.2018 12:32 15,6 C 23,9 C 15,6 C 69 % 0 lf 991,3 hPa 0,0 l/m 2 min 0 min 715 W/m 22,5 km/h (4 Bft) 95,74 %
12.03.2018 12:34 15,6 C 22,8 C 15,6 C 67 % 0 lf 991,4 hPa 0,0 l/m 2 min 0 min 765 W/m 29,3 km/h (5 Bft) 97,87 %
12.03.2018 12:36 15,7 C 21,1 C 15,6 C 66 % 0 lf 991,4 hPa 0,0 l/m 2 min 0 min 786 W/m 33,8 km/h (5 Bft) 97,87 %
12.03.2018 12:38 15,7 C 21,1 C 15,6 C 66 % 0 lf 991,3 hPa 0,0 l/m 2 min 0 min 756 W/m 24,8 km/h (4 Bft) 97,87 %
12.03.2018 12:40 15,7 C 21,7 C 15,6 C 66 % 0 lf 991,4 hPa 0,0 l/m 2 min 0 min 703 W/m 27,0 km/h (4 Bft) 100,00 %
12.03.2018 12:42 15,7 C 21,1 C 15,6 C 66 % 0 lf 991,3 hPa 0,0 l/m 2 min 0 min 722 W/m 31,5 km/h (5 Bft) 95,65 %
12.03.2018 12:44 15,7 C 20,0 C 15,6 C 67 % 0 lf 991,3 hPa 0,0 l/m 2 min 0 min 582 W/m 33,8 km/h (5 Bft) 97,87 %
12.03.2018 12:46 15,7 C 18,3 C 15,6 C 66 % 0 lf 991,3 hPa 0,0 l/m 2 min 0 min 343 W/m 33,8 km/h (5 Bft) 97,87 %
12.03.2018 12:48 15,7 C 17,8 C 15,6 C 66 % 0 lf 991,2 hPa 0,0 l/m 2 min 0 min 331 W/m 36,0 km/h (5 Bft) 97,87 %
12.03.2018 12:50 15,6 C 17,8 C 16,1 C 66 % 0 lf 991,3 hPa 0,0 l/m 2 min 0 min 383 W/m 15,8 km/h (3 Bft) 100,00 %
12.03.2018 12:52 15,6 C 17,2 C 16,1 C 66 % 0 lf 991,3 hPa 0,0 l/m 0 min 0 min 283 W/m 18,0 km/h (3 Bft) 95,74 %
12.03.2018 12:54 15,5 C 16,7 C 15,6 C 66 % 0 lf 991,3 hPa 0,0 l/m 0 min 0 min 247 W/m 22,5 km/h (4 Bft) 100,00 %
12.03.2018 12:56 15,4 C 16,1 C 15,0 C 66 % 0 lf 991,3 hPa 0,0 l/m 0 min 0 min 214 W/m 31,5 km/h (5 Bft) 95,74 %
12.03.2018 12:58 15,3 C 16,1 C 15,0 C 66 % 0 lf 991,3 hPa 0,0 l/m 0 min 0 min 199 W/m 29,3 km/h (5 Bft) 95,74 %
12.03.2018 13:01 15,2 C 15,6 C 14,4 C 67 % 0 lf 991,4 hPa 0,0 l/m 0 min 0 min 183 W/m 31,5 km/h (5 Bft) 97,14 %
12.03.2018 13:02 15,1 C 15,0 C 14,4 C 66 % 0 lf 991,4 hPa 0,0 l/m 0 min 0 min 181 W/m 31,5 km/h (5 Bft) 95,83 %
12.03.2018 13:04 15,0 C 15,0 C 14,4 C 67 % 0 lf 991,3 hPa 0,0 l/m 0 min 0 min 187 W/m 29,3 km/h (5 Bft) 97,87 %
12.03.2018 13:06 14,9 C 15,6 C 14,4 C 68 % 0 lf 991,3 hPa 0,0 l/m 0 min 0 min 237 W/m 24,8 km/h (4 Bft) 95,65 %
12.03.2018 13:08 14,9 C 15,6 C 15,0 C 68 % 0 lf 991,3 hPa 0,0 l/m 0 min 0 min 268 W/m 20,3 km/h (4 Bft) 97,87 %
12.03.2018 13:10 14,8 C 15,6 C 15,0 C 68 % 0 lf 991,2 hPa 0,0 l/m 0 min 0 min 264 W/m 27,0 km/h (4 Bft) 89,36 %
12.03.2018 13:12 14,8 C 15,6 C 15,0 C 69 % 0 lf 991,3 hPa 0,0 l/m 0 min 0 min 273 W/m 27,0 km/h (4 Bft) 97,87 %
12.03.2018 13:14 14,7 C 15,6 C 15,0 C 69 % 0 lf 991,3 hPa 0,0 l/m 0 min 0 min 276 W/m 29,3 km/h (5 Bft) 94,00 %
12.03.2018 13:16 14,7 C 15,6 C 15,0 C 69 % 0 lf 991,3 hPa 0,0 l/m 0 min 0 min 266 W/m 31,5 km/h (5 Bft) 93,48 %
12.03.2018 13:18 14,7 C 15,6 C 15,0 C 69 % 0 lf 991,3 hPa 0,0 l/m 0 min 0 min 260 W/m 20,3 km/h (4 Bft) 95,74 %
12.03.2018 13:20 14,6 C 15,6 C 15,6 C 70 % 0 lf 991,2 hPa 0,0 l/m 2 min 0 min 286 W/m 20,3 km/h (4 Bft) 97,87 %
12.03.2018 13:22 14,6 C 16,1 C 15,6 C 69 % 0 lf 991,2 hPa 0,0 l/m 2 min 0 min 313 W/m 29,3 km/h (5 Bft) 95,74 %
12.03.2018 13:24 14,6 C 16,1 C 15,6 C 69 % 0 lf 991,1 hPa 0,0 l/m 2 min 0 min 307 W/m 33,8 km/h (5 Bft) 95,74 %
12.03.2018 13:26 14,6 C 15,6 C 15,0 C 69 % 0 lf 991,1 hPa 0,0 l/m 0 min 0 min 247 W/m 31,5 km/h (5 Bft) 91,49 %
12.03.2018 13:28 14,6 C 15,6 C 15,0 C 69 % 0 lf 991,2 hPa 0,0 l/m 0 min 0 min 204 W/m 18,0 km/h (3 Bft) 95,65 %
12.03.2018 13:30 14,6 C 15,6 C 15,0 C 69 % 0 lf 991,1 hPa 0,0 l/m 0 min 0 min 184 W/m 29,3 km/h (5 Bft) 95,74 %
12.03.2018 13:32 14,6 C 15,6 C 14,4 C 69 % 0 lf 991,2 hPa 0,0 l/m 0 min 0 min 172 W/m 31,5 km/h (5 Bft) 95,74 %
12.03.2018 13:34 14,5 C 15,0 C 14,4 C 70 % 0 lf 991,1 hPa 0,0 l/m 0 min 0 min 190 W/m 31,5 km/h (5 Bft) 93,62 %
12.03.2018 13:36 14,5 C 15,6 C 15,0 C 70 % 0 lf 991,1 hPa 0,0 l/m 0 min 0 min 248 W/m 20,3 km/h (4 Bft) 95,74 %
12.03.2018 13:38 14,5 C 15,6 C 15,0 C 70 % 0 lf 991,2 hPa 0,0 l/m 0 min 0 min 210 W/m 24,8 km/h (4 Bft) 91,49 %
12.03.2018 13:40 14,4 C 15,6 C 14,4 C 69 % 0 lf 991,1 hPa 0,0 l/m 0 min 0 min 180 W/m 31,5 km/h (5 Bft) 97,83 %
12.03.2018 13:42 14,4 C 15,0 C 13,9 C 69 % 0 lf 991,1 hPa 0,0 l/m 0 min 0 min 172 W/m 31,5 km/h (5 Bft) 93,62 %
12.03.2018 13:44 14,4 C 15,0 C 13,9 C 69 % 0 lf 991,1 hPa 0,0 l/m 0 min 0 min 184 W/m 38,3 km/h (5 Bft) 95,74 %
12.03.2018 13:46 14,3 C 15,0 C 13,9 C 68 % 0 lf 991,1 hPa 0,0 l/m 0 min 0 min 219 W/m 31,5 km/h (5 Bft) 97,87 %
12.03.2018 13:48 14,2 C 15,6 C 14,4 C 68 % 0 lf 991,1 hPa 0,0 l/m 0 min 0 min 268 W/m 24,8 km/h (4 Bft) 95,74 %
12.03.2018 13:50 14,2 C 16,1 C 14,4 C 68 % 0 lf 991,1 hPa 0,0 l/m 2 min 0 min 316 W/m 20,3 km/h (4 Bft) 95,74 %
12.03.2018 13:52 14,3 C 17,8 C 15,0 C 69 % 0 lf 991,1 hPa 0,0 l/m 2 min 0 min 394 W/m 20,3 km/h (4 Bft) 91,30 %
12.03.2018 13:54 14,3 C 17,2 C 15,0 C 70 % 0 lf 991,1 hPa 0,0 l/m 2 min 0 min 299 W/m 22,5 km/h (4 Bft) 95,74 %
12.03.2018 13:56 14,3 C 16,1 C 13,9 C 69 % 0 lf 991,0 hPa 0,0 l/m 0 min 0 min 156 W/m 27,0 km/h (4 Bft) 100,00 %
12.03.2018 13:58 14,3 C 15,6 C 13,9 C 68 % 0 lf 991,1 hPa 0,0 l/m 0 min 0 min 144 W/m 20,3 km/h (4 Bft) 97,87 %
12.03.2018 14:00 14,3 C 15,0 C 13,9 C 68 % 0 lf 991,0 hPa 0,0 l/m 0 min 0 min 145 W/m 22,5 km/h (4 Bft) 97,87 %
12.03.2018 14:02 14,3 C 14,4 C 13,9 C 68 % 0 lf 991,0 hPa 0,0 l/m 0 min 0 min 131 W/m 31,5 km/h (5 Bft) 97,87 %
12.03.2018 14:04 14,2 C 14,4 C 13,3 C 68 % 0 lf 991,1 hPa 0,0 l/m 0 min 0 min 103 W/m 24,8 km/h (4 Bft) 97,83 %
12.03.2018 14:06 14,2 C 14,4 C 13,3 C 67 % 0 lf 991,1 hPa 0,0 l/m 0 min 0 min 96 W/m 27,0 km/h (4 Bft) 95,74 %
12.03.2018 14:08 14,2 C 14,4 C 13,3 C 68 % 0 lf 991,0 hPa 0,0 l/m 0 min 0 min 122 W/m 18,0 km/h (3 Bft) 95,74 %
12.03.2018 14:10 14,2 C 15,0 C 13,9 C 69 % 0 lf 991,0 hPa 0,0 l/m 0 min 0 min 165 W/m 24,8 km/h (4 Bft) 95,74 %
12.03.2018 14:12 14,2 C 15,0 C 13,9 C 69 % 0 lf 991,0 hPa 0,0 l/m 0 min 0 min 216 W/m 27,0 km/h (4 Bft) 93,62 %
12.03.2018 14:16 14,2 C 15,6 C 14,4 C 69 % 0 lf 991,0 hPa 0,0 l/m 0 min 0 min 253 W/m 31,5 km/h (5 Bft) 94,59 %
12.03.2018 14:18 14,2 C 15,6 C 14,4 C 69 % 0 lf 991,0 hPa 0,0 l/m 0 min 0 min 226 W/m 15,8 km/h (3 Bft) 95,74 %
12.03.2018 14:20 14,2 C 15,6 C 14,4 C 69 % 0 lf 990,9 hPa 0,0 l/m 0 min 0 min 196 W/m 27,0 km/h (4 Bft) 95,74 %
12.03.2018 14:22 14,2 C 15,0 C 13,9 C 68 % 0 lf 990,9 hPa 0,0 l/m 0 min 0 min 176 W/m 33,8 km/h (5 Bft) 97,87 %
12.03.2018 14:24 14,2 C 15,0 C 13,9 C 68 % 0 lf 990,9 hPa 0,0 l/m 0 min 0 min 185 W/m 24,8 km/h (4 Bft) 95,65 %
12.03.2018 14:26 14,2 C 15,0 C 13,9 C 68 % 0 lf 991,0 hPa 0,0 l/m 0 min 0 min 196 W/m 31,5 km/h (5 Bft) 96,43 %
12.03.2018 14:28 14,2 C 15,6 C 14,4 C 68 % 0 lf 990,9 hPa 0,0 l/m 0 min 0 min 210 W/m 29,3 km/h (5 Bft) 95,74 %
12.03.2018 14:30 14,2 C 15,6 C 14,4 C 68 % 0 lf 991,0 hPa 0,0 l/m 0 min 0 min 212 W/m 31,5 km/h (5 Bft) 95,65 %
12.03.2018 14:32 14,2 C 15,0 C 14,4 C 68 % 0 lf 991,0 hPa 0,0 l/m 0 min 0 min 177 W/m 33,8 km/h (5 Bft) 91,49 %
12.03.2018 14:34 14,2 C 14,4 C 13,9 C 67 % 0 lf 991,0 hPa 0,0 l/m 0 min 0 min 167 W/m 33,8 km/h (5 Bft) 92,00 %
12.03.2018 14:36 14,2 C 14,4 C 13,9 C 67 % 0 lf 991,0 hPa 0,0 l/m 0 min 0 min 162 W/m 27,0 km/h (4 Bft) 94,29 %
12.03.2018 14:38 14,2 C 14,4 C 13,9 C 67 % 0 lf 991,0 hPa 0,0 l/m 0 min 0 min 161 W/m 31,5 km/h (5 Bft) 93,62 %
12.03.2018 14:40 14,2 C 14,4 C 13,9 C 67 % 0 lf 991,0 hPa 0,0 l/m 0 min 0 min 146 W/m 22,5 km/h (4 Bft) 94,64 %
12.03.2018 14:42 14,2 C 15,0 C 13,9 C 68 % 0 lf 991,0 hPa 0,0 l/m 0 min 0 min 149 W/m 18,0 km/h (3 Bft) 95,65 %
12.03.2018 14:44 14,2 C 15,6 C 13,9 C 68 % 0 lf 991,1 hPa 0,0 l/m 0 min 0 min 190 W/m 18,0 km/h (3 Bft) 95,74 %
12.03.2018 14:46 14,2 C 15,6 C 13,9 C 68 % 0 lf 991,1 hPa 0,0 l/m 0 min 0 min 225 W/m 24,8 km/h (4 Bft) 93,62 %
12.03.2018 14:48 14,2 C 15,6 C 14,4 C 68 % 0 lf 991,0 hPa 0,0 l/m 2 min 0 min 249 W/m 18,0 km/h (3 Bft) 95,74 %
12.03.2018 14:50 14,2 C 16,1 C 15,0 C 68 % 0 lf 991,1 hPa 0,0 l/m 2 min 0 min 258 W/m 24,8 km/h (4 Bft) 94,00 %
12.03.2018 14:52 14,3 C 15,6 C 15,0 C 68 % 0 lf 991,1 hPa 0,0 l/m 2 min 0 min 261 W/m 27,0 km/h (4 Bft) 93,48 %
12.03.2018 14:54 14,3 C 15,6 C 14,4 C 68 % 0 lf 991,1 hPa 0,0 l/m 2 min 0 min 244 W/m 29,3 km/h (5 Bft) 95,74 %
12.03.2018 14:56 14,4 C 15,6 C 14,4 C 68 % 0 lf 991,1 hPa 0,0 l/m 0 min 0 min 216 W/m 27,0 km/h (4 Bft) 97,22 %
12.03.2018 14:58 14,4 C 15,6 C 15,0 C 68 % 0 lf 991,0 hPa 0,0 l/m 0 min 0 min 226 W/m 20,3 km/h (4 Bft) 95,74 %
12.03.2018 15:00 14,4 C 16,7 C 15,0 C 69 % 0 lf 991,0 hPa 0,0 l/m 2 min 0 min 289 W/m 31,5 km/h (5 Bft) 95,65 %
12.03.2018 15:02 14,4 C 18,3 C 15,0 C 68 % 0 lf 991,0 hPa 0,0 l/m 2 min 0 min 337 W/m 27,0 km/h (4 Bft) 98,21 %
12.03.2018 15:04 14,6 C 20,6 C 15,6 C 69 % 0 lf 991,0 hPa 0,0 l/m 2 min 0 min 636 W/m 20,3 km/h (4 Bft) 100,00 %
12.03.2018 15:06 14,7 C 21,1 C 15,6 C 68 % 0 lf 991,0 hPa 0,0 l/m 2 min 0 min 640 W/m 20,3 km/h (4 Bft) 97,83 %
12.03.2018 15:08 14,8 C 20,6 C 15,0 C 69 % 0 lf 991,0 hPa 0,0 l/m 2 min 0 min 587 W/m 29,3 km/h (5 Bft) 100,00 %
12.03.2018 15:10 14,9 C 21,1 C 15,0 C 68 % 0 lf 990,9 hPa 0,0 l/m 2 min 0 min 540 W/m 22,5 km/h (4 Bft) 100,00 %
12.03.2018 15:12 15,1 C 22,2 C 14,4 C 68 % 0 lf 990,9 hPa 0,0 l/m 2 min 0 min 499 W/m 18,0 km/h (3 Bft) 100,00 %
12.03.2018 15:14 15,2 C 21,1 C 14,4 C 67 % 0 lf 990,9 hPa 0,0 l/m 2 min 0 min 477 W/m 22,5 km/h (4 Bft) 100,00 %
12.03.2018 15:16 15,2 C 19,4 C 13,9 C 66 % 0 lf 990,9 hPa 0,0 l/m 2 min 0 min 483 W/m 33,8 km/h (5 Bft) 100,00 %
12.03.2018 15:18 15,2 C 19,4 C 13,9 C 66 % 0 lf 990,9 hPa 0,0 l/m 2 min 0 min 491 W/m 29,3 km/h (5 Bft) 100,00 %
12.03.2018 15:20 15,2 C 20,0 C 13,9 C 66 % 0 lf 990,9 hPa 0,0 l/m 2 min 0 min 476 W/m 29,3 km/h (5 Bft) 97,87 %
12.03.2018 15:22 15,2 C 18,3 C 13,3 C 66 % 0 lf 990,9 hPa 0,0 l/m 2 min 0 min 480 W/m 31,5 km/h (5 Bft) 100,00 %
12.03.2018 15:24 15,1 C 16,7 C 13,3 C 66 % 0 lf 990,9 hPa 0,0 l/m 2 min 0 min 275 W/m 33,8 km/h (5 Bft) 100,00 %
12.03.2018 15:26 15,1 C 16,7 C 13,3 C 67 % 0 lf 991,0 hPa 0,0 l/m 0 min 0 min 156 W/m 31,5 km/h (5 Bft) 100,00 %
12.03.2018 15:28 15,0 C 16,7 C 13,9 C 66 % 0 lf 990,7 hPa 0,0 l/m 0 min 0 min 204 W/m 29,3 km/h (5 Bft) 100,00 %
12.03.2018 15:30 15,0 C 17,8 C 13,9 C 67 % 0 lf 990,9 hPa 0,0 l/m 2 min 0 min 270 W/m 29,3 km/h (5 Bft) 100,00 %
12.03.2018 15:32 15,1 C 18,9 C 14,4 C 66 % 0 lf 990,9 hPa 0,0 l/m 2 min 0 min 557 W/m 24,8 km/h (4 Bft) 97,87 %
12.03.2018 15:34 15,1 C 17,8 C 14,4 C 66 % 0 lf 990,8 hPa 0,0 l/m 2 min 0 min 381 W/m 27,0 km/h (4 Bft) 97,83 %
12.03.2018 15:36 15,1 C 18,3 C 14,4 C 67 % 0 lf 990,8 hPa 0,0 l/m 0 min 0 min 181 W/m 31,5 km/h (5 Bft) 96,43 %
12.03.2018 15:38 15,1 C 16,7 C 14,4 C 67 % 0 lf 991,0 hPa 0,0 l/m 2 min 0 min 297 W/m 33,8 km/h (5 Bft) 97,87 %
12.03.2018 15:40 15,1 C 16,1 C 13,9 C 67 % 0 lf 990,9 hPa 0,0 l/m 0 min 0 min 156 W/m 18,0 km/h (3 Bft) 97,96 %
12.03.2018 15:42 15,0 C 15,6 C 13,9 C 67 % 0 lf 991,0 hPa 0,0 l/m 0 min 0 min 127 W/m 36,0 km/h (5 Bft) 94,44 %
12.03.2018 15:44 14,9 C 15,0 C 13,9 C 68 % 0 lf 990,9 hPa 0,0 l/m 0 min 0 min 119 W/m 31,5 km/h (5 Bft) 93,62 %
12.03.2018 15:46 14,8 C 14,4 C 13,3 C 68 % 0 lf 990,9 hPa 0,0 l/m 0 min 0 min 92 W/m 27,0 km/h (4 Bft) 95,65 %
12.03.2018 15:48 14,8 C 14,4 C 13,3 C 68 % 0 lf 990,9 hPa 0,0 l/m 0 min 0 min 73 W/m 24,8 km/h (4 Bft) 98,21 %
12.03.2018 15:50 14,7 C 14,4 C 12,8 C 68 % 0 lf 991,0 hPa 0,0 l/m 0 min 0 min 78 W/m 38,3 km/h (5 Bft) 97,96 %
12.03.2018 15:52 14,6 C 14,4 C 12,8 C 68 % 3 lf 990,9 hPa 0,0 l/m 0 min 0 min 157 W/m 54,1 km/h (7 Bft) 95,74 %
12.03.2018 15:54 14,4 C 13,9 C 12,8 C 70 % 15 lf 991,1 hPa 0,0 l/m 2 min 2 min 328 W/m 33,8 km/h (5 Bft) 97,87 %
12.03.2018 15:56 14,3 C 13,3 C 11,7 C 73 % 15 lf 991,0 hPa 0,0 l/m 2 min 2 min 401 W/m 31,5 km/h (5 Bft) 97,22 %
12.03.2018 15:58 14,3 C 13,9 C 11,1 C 74 % 15 lf 991,0 hPa 0,0 l/m 2 min 2 min 451 W/m 24,8 km/h (4 Bft) 97,83 %
12.03.2018 16:00 14,2 C 14,4 C 10,6 C 74 % 11 lf 991,0 hPa 0,0 l/m 2 min 2 min 409 W/m 27,0 km/h (4 Bft) 94,64 %
12.03.2018 16:02 14,2 C 16,1 C 10,6 C 74 % 0 lf 991,0 hPa 0,0 l/m 2 min 2 min 381 W/m 24,8 km/h (4 Bft) 97,96 %
12.03.2018 16:04 14,2 C 16,7 C 10,6 C 74 % 0 lf 991,0 hPa 0,0 l/m 2 min 2 min 368 W/m 27,0 km/h (4 Bft) 97,22 %
12.03.2018 16:06 14,0 C 17,2 C 10,6 C 74 % 0 lf 990,9 hPa 0,0 l/m 2 min 0 min 364 W/m 18,0 km/h (3 Bft) 97,87 %
12.03.2018 16:08 14,0 C 17,2 C 11,1 C 74 % 0 lf 990,9 hPa 0,0 l/m 2 min 2 min 355 W/m 20,3 km/h (4 Bft) 93,62 %
12.03.2018 16:10 14,0 C 16,7 C 11,1 C 75 % 0 lf 990,8 hPa 0,0 l/m 2 min 0 min 333 W/m 24,8 km/h (4 Bft) 95,65 %
12.03.2018 16:12 14,0 C 16,1 C 11,7 C 75 % 0 lf 990,8 hPa 0,0 l/m 2 min 0 min 340 W/m 24,8 km/h (4 Bft) 95,74 %
12.03.2018 16:14 14,0 C 15,6 C 11,7 C 74 % 0 lf 990,9 hPa 0,0 l/m 2 min 2 min 321 W/m 31,5 km/h (5 Bft) 96,43 %
12.03.2018 16:16 13,9 C 15,6 C 11,7 C 74 % 0 lf 990,9 hPa 0,0 l/m 2 min 0 min 314 W/m 29,3 km/h (5 Bft) 97,83 %
12.03.2018 16:18 14,0 C 15,6 C 11,7 C 75 % 0 lf 990,9 hPa 0,0 l/m 2 min 0 min 292 W/m 24,8 km/h (4 Bft) 98,00 %
12.03.2018 16:20 14,0 C 15,0 C 11,7 C 75 % 0 lf 990,9 hPa 0,0 l/m 2 min 0 min 269 W/m 29,3 km/h (5 Bft) 95,74 %
12.03.2018 16:22 14,0 C 14,4 C 11,7 C 74 % 0 lf 990,9 hPa 0,0 l/m 2 min 2 min 249 W/m 38,3 km/h (5 Bft) 100,00 %
12.03.2018 16:24 13,9 C 13,9 C 11,7 C 74 % 0 lf 990,9 hPa 0,0 l/m 2 min 0 min 212 W/m 31,5 km/h (5 Bft) 100,00 %
12.03.2018 16:26 13,9 C 13,9 C 11,7 C 75 % 0 lf 990,9 hPa 0,0 l/m 2 min 0 min 198 W/m 22,5 km/h (4 Bft) 100,00 %
12.03.2018 16:28 13,9 C 13,9 C 11,7 C 75 % 0 lf 990,9 hPa 0,0 l/m 2 min 0 min 188 W/m 22,5 km/h (4 Bft) 97,22 %
12.03.2018 16:30 13,9 C 13,9 C 11,7 C 75 % 0 lf 990,9 hPa 0,0 l/m 2 min 0 min 188 W/m 15,8 km/h (3 Bft) 97,87 %
12.03.2018 16:32 13,9 C 13,9 C 11,7 C 75 % 0 lf 990,9 hPa 0,0 l/m 2 min 0 min 176 W/m 22,5 km/h (4 Bft) 97,87 %
12.03.2018 16:34 13,9 C 13,9 C 11,7 C 75 % 0 lf 991,0 hPa 0,0 l/m 0 min 0 min 103 W/m 15,8 km/h (3 Bft) 97,83 %
12.03.2018 16:36 13,8 C 13,3 C 11,7 C 74 % 0 lf 990,9 hPa 0,0 l/m 0 min 0 min 130 W/m 29,3 km/h (5 Bft) 100,00 %
12.03.2018 16:38 13,8 C 13,3 C 11,7 C 74 % 0 lf 991,0 hPa 0,0 l/m 0 min 0 min 114 W/m 31,5 km/h (5 Bft) 96,43 %
12.03.2018 16:40 13,7 C 13,3 C 11,7 C 74 % 0 lf 991,0 hPa 0,0 l/m 0 min 2 min 75 W/m 36,0 km/h (5 Bft) 95,92 %
12.03.2018 16:42 13,6 C 13,3 C 11,1 C 74 % 0 lf 991,0 hPa 0,0 l/m 0 min 0 min 64 W/m 22,5 km/h (4 Bft) 94,44 %
12.03.2018 16:44 13,6 C 12,8 C 11,1 C 74 % 0 lf 990,9 hPa 0,0 l/m 0 min 0 min 52 W/m 31,5 km/h (5 Bft) 97,83 %
12.03.2018 16:46 13,4 C 12,8 C 11,1 C 74 % 0 lf 990,9 hPa 0,0 l/m 0 min 0 min 51 W/m 18,0 km/h (3 Bft) 97,87 %
12.03.2018 16:48 13,4 C 12,8 C 11,1 C 75 % 0 lf 990,9 hPa 0,0 l/m 0 min 0 min 52 W/m 15,8 km/h (3 Bft) 96,43 %
12.03.2018 16:50 13,3 C 12,8 C 11,1 C 75 % 0 lf 991,0 hPa 0,0 l/m 0 min 0 min 53 W/m 18,0 km/h (3 Bft) 93,88 %
12.03.2018 16:52 13,3 C 12,8 C 11,1 C 75 % 0 lf 991,0 hPa 0,0 l/m 0 min 0 min 50 W/m 22,5 km/h (4 Bft) 95,74 %
12.03.2018 16:54 13,2 C 12,8 C 11,1 C 76 % 0 lf 991,0 hPa 0,0 l/m 0 min 0 min 39 W/m 20,3 km/h (4 Bft) 95,74 %
12.03.2018 16:56 13,2 C 12,8 C 11,1 C 76 % 0 lf 991,1 hPa 0,0 l/m 0 min 0 min 29 W/m 42,8 km/h (6 Bft) 88,57 %
12.03.2018 16:58 13,1 C 12,2 C 11,1 C 76 % 1 lf 991,2 hPa 0,0 l/m 0 min 0 min 20 W/m 51,8 km/h (7 Bft) 93,62 %
12.03.2018 17:00 12,9 C 11,7 C 10,6 C 77 % 15 lf 991,2 hPa 0,0 l/m 0 min 2 min 18 W/m 40,6 km/h (6 Bft) 96,43 %
12.03.2018 17:02 12,8 C 10,0 C 9,4 C 78 % 15 lf 991,3 hPa 0,0 l/m 0 min 2 min 21 W/m 38,3 km/h (5 Bft) 95,65 %
12.03.2018 17:04 12,7 C 9,4 C 8,9 C 79 % 15 lf 991,2 hPa 0,0 l/m 0 min 2 min 26 W/m 27,0 km/h (4 Bft) 91,49 %
12.03.2018 17:06 12,5 C 9,4 C 8,3 C 80 % 15 lf 991,2 hPa 0,0 l/m 0 min 2 min 34 W/m 20,3 km/h (4 Bft) 91,49 %
12.03.2018 17:08 12,3 C 9,4 C 8,9 C 81 % 15 lf 991,3 hPa 0,0 l/m 0 min 2 min 50 W/m 15,8 km/h (3 Bft) 91,49 %
12.03.2018 17:10 12,2 C 9,4 C 8,9 C 81 % 15 lf 991,3 hPa 0,0 l/m 0 min 2 min 71 W/m 29,3 km/h (5 Bft) 93,62 %
12.03.2018 17:12 12,1 C 9,4 C 8,9 C 82 % 15 lf 991,3 hPa 0,0 l/m 0 min 2 min 93 W/m 15,8 km/h (3 Bft) 91,49 %
12.03.2018 17:14 12,0 C 9,4 C 8,9 C 83 % 15 lf 991,3 hPa 0,0 l/m 2 min 2 min 104 W/m 18,0 km/h (3 Bft) 93,88 %
12.03.2018 17:16 11,9 C 9,4 C 8,9 C 83 % 15 lf 991,3 hPa 0,0 l/m 2 min 0 min 105 W/m 20,3 km/h (4 Bft) 93,62 %
12.03.2018 17:18 11,8 C 9,4 C 8,9 C 83 % 15 lf 991,3 hPa 0,0 l/m 2 min 2 min 106 W/m 20,3 km/h (4 Bft) 93,62 %
12.03.2018 17:20 11,7 C 9,4 C 8,3 C 83 % 15 lf 991,3 hPa 0,0 l/m 2 min 0 min 93 W/m 24,8 km/h (4 Bft) 93,62 %
12.03.2018 17:22 11,6 C 9,4 C 8,3 C 83 % 15 lf 991,2 hPa 0,0 l/m 0 min 0 min 77 W/m 29,3 km/h (5 Bft) 91,49 %
12.03.2018 17:24 11,4 C 9,4 C 8,3 C 83 % 15 lf 991,3 hPa 0,0 l/m 2 min 0 min 85 W/m 27,0 km/h (4 Bft) 86,96 %
12.03.2018 17:26 11,4 C 9,4 C 8,3 C 83 % 15 lf 991,3 hPa 0,0 l/m 0 min 0 min 71 W/m 20,3 km/h (4 Bft) 94,44 %
12.03.2018 17:28 11,3 C 9,4 C 8,3 C 83 % 15 lf 991,3 hPa 0,0 l/m 2 min 0 min 98 W/m 22,5 km/h (4 Bft) 93,62 %
12.03.2018 17:30 11,3 C 10,0 C 8,3 C 83 % 11 lf 991,4 hPa 0,0 l/m 2 min 0 min 106 W/m 22,5 km/h (4 Bft) 96,36 %
12.03.2018 17:32 11,2 C 10,0 C 8,3 C 83 % 4 lf 991,4 hPa 0,0 l/m 2 min 0 min 99 W/m 22,5 km/h (4 Bft) 93,62 %
12.03.2018 17:34 11,2 C 10,0 C 8,3 C 83 % 0 lf 991,3 hPa 0,0 l/m 2 min 0 min 94 W/m 18,0 km/h (3 Bft) 97,83 %
12.03.2018 17:36 11,2 C 10,0 C 8,3 C 82 % 0 lf 991,4 hPa 0,0 l/m 2 min 0 min 89 W/m 29,3 km/h (5 Bft) 91,84 %
12.03.2018 17:38 11,2 C 10,0 C 8,3 C 82 % 0 lf 991,4 hPa 0,0 l/m 2 min 0 min 84 W/m 27,0 km/h (4 Bft) 97,22 %
12.03.2018 17:40 11,2 C 10,0 C 8,3 C 82 % 0 lf 991,4 hPa 0,0 l/m 2 min 0 min 79 W/m 18,0 km/h (3 Bft) 93,62 %
12.03.2018 17:42 11,2 C 10,0 C 8,3 C 82 % 0 lf 991,5 hPa 0,0 l/m 2 min 0 min 69 W/m 24,8 km/h (4 Bft) 97,87 %
12.03.2018 17:44 11,3 C 10,0 C 8,3 C 82 % 0 lf 991,5 hPa 0,0 l/m 2 min 0 min 75 W/m 27,0 km/h (4 Bft) 97,83 %
12.03.2018 17:46 11,3 C 10,0 C 8,3 C 81 % 0 lf 991,6 hPa 0,0 l/m 2 min 0 min 69 W/m 22,5 km/h (4 Bft) 95,74 %
12.03.2018 17:48 11,3 C 10,0 C 8,3 C 81 % 0 lf 991,6 hPa 0,2 l/m 2 min 0 min 65 W/m 20,3 km/h (4 Bft) 96,43 %
12.03.2018 17:50 11,3 C 10,0 C 8,3 C 80 % 0 lf 991,6 hPa 0,0 l/m 2 min 0 min 69 W/m 24,8 km/h (4 Bft) 97,83 %
12.03.2018 17:52 11,4 C 10,6 C 8,3 C 80 % 0 lf 991,6 hPa 0,0 l/m 2 min 0 min 75 W/m 20,3 km/h (4 Bft) 97,14 %
12.03.2018 17:54 11,4 C 10,6 C 8,9 C 80 % 0 lf 991,6 hPa 0,0 l/m 2 min 0 min 78 W/m 29,3 km/h (5 Bft) 96,77 %
12.03.2018 17:56 11,4 C 11,1 C 8,9 C 80 % 0 lf 991,7 hPa 0,0 l/m 2 min 0 min 73 W/m 29,3 km/h (5 Bft) 91,43 %
12.03.2018 17:58 11,4 C 11,1 C 8,9 C 79 % 0 lf 991,6 hPa 0,0 l/m 2 min 0 min 64 W/m 24,8 km/h (4 Bft) 97,87 %
12.03.2018 18:00 11,4 C 11,7 C 8,9 C 79 % 0 lf 991,6 hPa 0,0 l/m 2 min 0 min 55 W/m 18,0 km/h (3 Bft) 97,87 %
12.03.2018 18:02 11,5 C 11,7 C 8,9 C 79 % 0 lf 991,7 hPa 0,0 l/m 2 min 0 min 45 W/m 20,3 km/h (4 Bft) 97,87 %
12.03.2018 18:04 11,5 C 11,7 C 8,9 C 79 % 0 lf 991,7 hPa 0,0 l/m 2 min 0 min 39 W/m 20,3 km/h (4 Bft) 96,36 %
12.03.2018 18:06 11,5 C 11,7 C 8,9 C 79 % 0 lf 991,7 hPa 0,0 l/m 2 min 0 min 34 W/m 11,3 km/h (2 Bft) 94,00 %
12.03.2018 18:08 11,5 C 11,7 C 9,4 C 79 % 0 lf 991,7 hPa 0,0 l/m 2 min 0 min 30 W/m 15,8 km/h (3 Bft) 97,87 %
12.03.2018 18:10 11,5 C 11,7 C 9,4 C 79 % 0 lf 991,7 hPa 0,0 l/m 2 min 0 min 27 W/m 13,5 km/h (3 Bft) 97,14 %
12.03.2018 18:12 11,5 C 11,7 C 9,4 C 79 % 0 lf 991,7 hPa 0,0 l/m 2 min 0 min 25 W/m 18,0 km/h (3 Bft) 98,25 %
12.03.2018 18:14 11,5 C 11,7 C 9,4 C 79 % 0 lf 991,8 hPa 0,0 l/m 2 min 0 min 24 W/m 11,3 km/h (2 Bft) 100,00 %
12.03.2018 18:16 11,5 C 11,7 C 9,4 C 79 % 0 lf 991,7 hPa 0,0 l/m 2 min 0 min 21 W/m 13,5 km/h (3 Bft) 97,87 %
12.03.2018 18:18 11,5 C 11,7 C 9,4 C 78 % 0 lf 991,7 hPa 0,0 l/m 2 min 0 min 20 W/m 9,0 km/h (2 Bft) 97,83 %
12.03.2018 18:20 11,5 C 11,1 C 9,4 C 79 % 0 lf 991,9 hPa 0,0 l/m 2 min 0 min 20 W/m 9,0 km/h (2 Bft) 100,00 %
12.03.2018 18:22 11,5 C 11,1 C 9,4 C 79 % 0 lf 991,9 hPa 0,0 l/m 0 min 0 min 19 W/m 15,8 km/h (3 Bft) 100,00 %
12.03.2018 18:24 11,5 C 11,1 C 9,4 C 79 % 0 lf 991,9 hPa 0,0 l/m 0 min 0 min 17 W/m 15,8 km/h (3 Bft) 100,00 %
12.03.2018 18:26 11,5 C 11,1 C 9,4 C 79 % 0 lf 991,8 hPa 0,0 l/m 0 min 0 min 12 W/m 11,3 km/h (2 Bft) 100,00 %
12.03.2018 18:28 11,5 C 11,1 C 9,4 C 78 % 0 lf 991,9 hPa 0,0 l/m 0 min 0 min 8 W/m 11,3 km/h (2 Bft) 97,87 %
12.03.2018 18:30 11,5 C 11,1 C 9,4 C 78 % 0 lf 991,9 hPa 0,0 l/m 0 min 0 min 5 W/m 18,0 km/h (3 Bft) 92,59 %
12.03.2018 18:32 11,5 C 11,1 C 9,4 C 79 % 0 lf 991,9 hPa 0,0 l/m 0 min 0 min 0 W/m 11,3 km/h (2 Bft) 96,00 %
12.03.2018 18:34 11,5 C 11,1 C 9,4 C 79 % 0 lf 991,9 hPa 0,0 l/m 0 min 0 min 0 W/m 13,5 km/h (3 Bft) 95,65 %
12.03.2018 18:36 11,5 C 11,1 C 9,4 C 79 % 0 lf 992,0 hPa 0,0 l/m 0 min 0 min 0 W/m 15,8 km/h (3 Bft) 97,30 %
12.03.2018 18:38 11,5 C 11,1 C 9,4 C 79 % 0 lf 992,0 hPa 0,0 l/m 0 min 0 min 0 W/m 24,8 km/h (4 Bft) 95,74 %
12.03.2018 18:40 11,5 C 11,7 C 10,0 C 79 % 0 lf 992,2 hPa 0,0 l/m 0 min 0 min 0 W/m 22,5 km/h (4 Bft) 93,62 %
12.03.2018 18:42 11,6 C 11,1 C 9,4 C 79 % 6 lf 992,3 hPa 0,0 l/m 0 min 2 min 0 W/m 33,8 km/h (5 Bft) 97,83 %
12.03.2018 18:44 11,6 C 10,6 C 8,9 C 79 % 15 lf 992,5 hPa 0,0 l/m 0 min 2 min 0 W/m 27,0 km/h (4 Bft) 97,87 %
12.03.2018 18:46 11,5 C 10,0 C 8,3 C 79 % 15 lf 992,4 hPa 0,0 l/m 0 min 2 min 0 W/m 31,5 km/h (5 Bft) 92,59 %
12.03.2018 18:48 11,4 C 10,0 C 8,3 C 80 % 15 lf 992,4 hPa 0,0 l/m 0 min 2 min 0 W/m 29,3 km/h (5 Bft) 98,00 %
12.03.2018 18:50 11,3 C 9,4 C 7,8 C 80 % 15 lf 992,5 hPa 0,0 l/m 0 min 2 min 0 W/m 22,5 km/h (4 Bft) 95,83 %
12.03.2018 18:52 11,2 C 9,4 C 7,8 C 82 % 15 lf 992,5 hPa 0,0 l/m 0 min 2 min 0 W/m 18,0 km/h (3 Bft) 94,44 %
12.03.2018 18:54 11,2 C 8,9 C 7,8 C 82 % 15 lf 992,5 hPa 0,0 l/m 0 min 2 min 0 W/m 31,5 km/h (5 Bft) 95,65 %
12.03.2018 18:56 11,1 C 8,9 C 7,8 C 82 % 15 lf 992,5 hPa 0,0 l/m 0 min 2 min 0 W/m 20,3 km/h (4 Bft) 95,74 %
12.03.2018 18:58 10,9 C 8,9 C 7,8 C 83 % 15 lf 992,4 hPa 0,0 l/m 0 min 2 min 0 W/m 22,5 km/h (4 Bft) 95,74 %
12.03.2018 19:00 10,8 C 8,9 C 7,2 C 83 % 15 lf 992,4 hPa 0,0 l/m 0 min 2 min 0 W/m 20,3 km/h (4 Bft) 95,74 %
12.03.2018 19:02 10,8 C 8,3 C 7,2 C 84 % 15 lf 992,4 hPa 0,0 l/m 0 min 2 min 0 W/m 24,8 km/h (4 Bft) 94,44 %
12.03.2018 19:04 10,6 C 8,3 C 7,2 C 84 % 15 lf 992,4 hPa 0,0 l/m 0 min 2 min 0 W/m 18,0 km/h (3 Bft) 92,00 %
12.03.2018 19:06 10,5 C 7,8 C 7,2 C 85 % 15 lf 992,4 hPa 0,0 l/m 0 min 2 min 0 W/m 15,8 km/h (3 Bft) 95,74 %
12.03.2018 19:08 10,4 C 7,8 C 7,2 C 85 % 15 lf 992,4 hPa 0,2 l/m 0 min 2 min 0 W/m 18,0 km/h (3 Bft) 94,44 %
12.03.2018 19:10 10,3 C 7,8 C 7,2 C 85 % 15 lf 992,4 hPa 0,0 l/m 0 min 2 min 0 W/m 18,0 km/h (3 Bft) 95,74 %
12.03.2018 19:12 10,3 C 7,8 C 6,7 C 86 % 15 lf 992,4 hPa 0,0 l/m 0 min 0 min 0 W/m 18,0 km/h (3 Bft) 96,30 %
12.03.2018 19:14 10,2 C 7,8 C 6,7 C 86 % 15 lf 992,4 hPa 0,0 l/m 0 min 0 min 0 W/m 15,8 km/h (3 Bft) 94,00 %
12.03.2018 19:16 10,1 C 7,8 C 6,7 C 86 % 15 lf 992,4 hPa 0,0 l/m 0 min 0 min 0 W/m 9,0 km/h (2 Bft) 93,62 %
12.03.2018 19:18 10,0 C 7,8 C 6,7 C 86 % 15 lf 992,4 hPa 0,0 l/m 0 min 0 min 0 W/m 18,0 km/h (3 Bft) 97,87 %
12.03.2018 19:20 9,9 C 7,8 C 6,7 C 87 % 15 lf 992,5 hPa 0,0 l/m 0 min 0 min 0 W/m 18,0 km/h (3 Bft) 97,92 %
12.03.2018 19:22 9,9 C 7,8 C 6,7 C 87 % 15 lf 992,5 hPa 0,0 l/m 0 min 0 min 0 W/m 13,5 km/h (3 Bft) 97,14 %
12.03.2018 19:24 9,8 C 7,8 C 6,7 C 87 % 15 lf 992,5 hPa 0,0 l/m 0 min 0 min 0 W/m 15,8 km/h (3 Bft) 97,87 %
12.03.2018 19:26 9,8 C 7,8 C 6,7 C 88 % 15 lf 992,5 hPa 0,0 l/m 0 min 0 min 0 W/m 13,5 km/h (3 Bft) 97,87 %
12.03.2018 19:28 9,7 C 7,8 C 6,7 C 88 % 15 lf 992,5 hPa 0,0 l/m 0 min 0 min 0 W/m 11,3 km/h (2 Bft) 98,15 %
12.03.2018 19:30 9,7 C 7,8 C 6,7 C 88 % 15 lf 992,5 hPa 0,0 l/m 0 min 0 min 0 W/m 9,0 km/h (2 Bft) 100,00 %
12.03.2018 19:32 9,6 C 7,8 C 6,7 C 88 % 15 lf 992,5 hPa 0,0 l/m 0 min 0 min 0 W/m 9,0 km/h (2 Bft) 98,00 %
12.03.2018 19:34 9,6 C 8,3 C 7,2 C 88 % 15 lf 992,5 hPa 0,0 l/m 0 min 0 min 0 W/m 15,8 km/h (3 Bft) 95,65 %
12.03.2018 19:36 9,6 C 8,3 C 7,2 C 89 % 15 lf 992,5 hPa 0,0 l/m 0 min 0 min 0 W/m 18,0 km/h (3 Bft) 97,30 %
12.03.2018 19:38 9,6 C 8,3 C 7,2 C 89 % 15 lf 992,6 hPa 0,0 l/m 0 min 0 min 0 W/m 15,8 km/h (3 Bft) 97,87 %
12.03.2018 19:40 9,5 C 8,3 C 7,2 C 89 % 15 lf 992,7 hPa 0,0 l/m 0 min 0 min 0 W/m 15,8 km/h (3 Bft) 93,48 %
12.03.2018 19:42 9,5 C 8,3 C 7,2 C 89 % 15 lf 992,7 hPa 0,0 l/m 0 min 0 min 0 W/m 18,0 km/h (3 Bft) 97,87 %
12.03.2018 19:44 9,5 C 8,3 C 7,2 C 89 % 15 lf 992,7 hPa 0,0 l/m 0 min 0 min 0 W/m 18,0 km/h (3 Bft) 97,87 %
12.03.2018 19:46 9,5 C 8,3 C 7,2 C 90 % 15 lf 992,7 hPa 0,0 l/m 0 min 2 min 0 W/m 18,0 km/h (3 Bft) 95,74 %
12.03.2018 19:48 9,5 C 8,3 C 7,2 C 90 % 15 lf 992,7 hPa 0,0 l/m 0 min 0 min 0 W/m 20,3 km/h (4 Bft) 97,87 %
12.03.2018 19:50 9,5 C 8,3 C 7,2 C 90 % 15 lf 992,8 hPa 0,0 l/m 0 min 0 min 0 W/m 18,0 km/h (3 Bft) 98,15 %
12.03.2018 19:52 9,5 C 8,3 C 7,2 C 90 % 15 lf 992,8 hPa 0,0 l/m 0 min 0 min 0 W/m 18,0 km/h (3 Bft) 95,74 %
12.03.2018 19:54 9,5 C 8,3 C 7,2 C 90 % 15 lf 992,8 hPa 0,0 l/m 0 min 0 min 0 W/m 22,5 km/h (4 Bft) 97,87 %
12.03.2018 19:56 9,6 C 8,9 C 7,2 C 90 % 15 lf 992,8 hPa 0,0 l/m 0 min 0 min 0 W/m 24,8 km/h (4 Bft) 93,88 %
12.03.2018 19:58 9,6 C 8,9 C 7,2 C 90 % 15 lf 992,8 hPa 0,0 l/m 0 min 0 min 0 W/m 18,0 km/h (3 Bft) 94,59 %
12.03.2018 20:00 9,6 C 8,9 C 7,2 C 90 % 14 lf 992,8 hPa 0,0 l/m 0 min 0 min 0 W/m 24,8 km/h (4 Bft) 97,87 %
12.03.2018 20:02 9,6 C 8,9 C 7,2 C 90 % 11 lf 992,7 hPa 0,0 l/m 0 min 0 min 0 W/m 29,3 km/h (5 Bft) 95,74 %
12.03.2018 20:04 9,7 C 8,9 C 7,2 C 90 % 5 lf 992,8 hPa 0,0 l/m 0 min 0 min 0 W/m 18,0 km/h (3 Bft) 96,30 %
12.03.2018 20:06 9,7 C 8,9 C 7,2 C 90 % 3 lf 992,8 hPa 0,0 l/m 0 min 0 min 0 W/m 13,5 km/h (3 Bft) 98,00 %
12.03.2018 20:08 9,7 C 8,9 C 7,2 C 90 % 1 lf 992,8 hPa 0,0 l/m 0 min 0 min 0 W/m 20,3 km/h (4 Bft) 97,22 %
12.03.2018 20:10 9,7 C 8,9 C 7,2 C 89 % 0 lf 992,8 hPa 0,2 l/m 0 min 0 min 0 W/m 15,8 km/h (3 Bft) 95,74 %
12.03.2018 20:12 9,7 C 8,9 C 7,2 C 89 % 0 lf 992,9 hPa 0,0 l/m 0 min 0 min 0 W/m 22,5 km/h (4 Bft) 97,87 %
12.03.2018 20:14 9,7 C 8,9 C 7,2 C 90 % 0 lf 993,0 hPa 0,0 l/m 0 min 0 min 0 W/m 22,5 km/h (4 Bft) 95,74 %
12.03.2018 20:16 9,8 C 8,9 C 7,2 C 89 % 0 lf 992,9 hPa 0,0 l/m 0 min 0 min 0 W/m 22,5 km/h (4 Bft) 100,00 %
12.03.2018 20:18 9,8 C 8,9 C 7,2 C 89 % 0 lf 993,0 hPa 0,0 l/m 0 min 0 min 0 W/m 31,5 km/h (5 Bft) 98,00 %
12.03.2018 20:20 9,8 C 8,9 C 7,2 C 89 % 0 lf 993,0 hPa 0,0 l/m 0 min 0 min 0 W/m 20,3 km/h (4 Bft) 100,00 %
12.03.2018 20:22 9,8 C 8,9 C 7,8 C 89 % 1 lf 993,0 hPa 0,0 l/m 0 min 0 min 0 W/m 20,3 km/h (4 Bft) 100,00 %
12.03.2018 20:24 9,8 C 8,9 C 7,8 C 89 % 1 lf 993,0 hPa 0,0 l/m 0 min 0 min 0 W/m 24,8 km/h (4 Bft) 100,00 %
12.03.2018 20:26 9,8 C 8,9 C 7,8 C 89 % 1 lf 993,0 hPa 0,0 l/m 0 min 2 min 0 W/m 24,8 km/h (4 Bft) 100,00 %
12.03.2018 20:28 9,8 C 8,9 C 7,8 C 89 % 1 lf 993,1 hPa 0,0 l/m 0 min 2 min 0 W/m 29,3 km/h (5 Bft) 98,15 %
12.03.2018 20:30 9,8 C 8,9 C 7,2 C 89 % 4 lf 993,1 hPa 0,0 l/m 0 min 0 min 0 W/m 27,0 km/h (4 Bft) 98,00 %
12.03.2018 20:32 9,8 C 8,9 C 7,2 C 89 % 3 lf 993,1 hPa 0,0 l/m 0 min 0 min 0 W/m 31,5 km/h (5 Bft) 100,00 %
12.03.2018 20:34 9,8 C 8,9 C 7,2 C 89 % 1 lf 993,1 hPa 0,0 l/m 0 min 0 min 0 W/m 38,3 km/h (5 Bft) 100,00 %
12.03.2018 20:36 9,8 C 8,9 C 7,2 C 89 % 0 lf 993,1 hPa 0,0 l/m 0 min 0 min 0 W/m 38,3 km/h (5 Bft) 96,30 %
12.03.2018 20:38 9,8 C 8,9 C 7,2 C 89 % 0 lf 993,1 hPa 0,0 l/m 0 min 0 min 0 W/m 18,0 km/h (3 Bft) 100,00 %
12.03.2018 20:40 9,8 C 8,9 C 7,2 C 89 % 1 lf 993,1 hPa 0,0 l/m 0 min 0 min 0 W/m 33,8 km/h (5 Bft) 94,44 %
12.03.2018 20:42 9,8 C 8,9 C 7,2 C 89 % 1 lf 993,1 hPa 0,0 l/m 0 min 0 min 0 W/m 38,3 km/h (5 Bft) 97,87 %
12.03.2018 20:44 9,7 C 8,3 C 7,2 C 89 % 5 lf 993,1 hPa 0,0 l/m 0 min 0 min 0 W/m 31,5 km/h (5 Bft) 97,87 %
12.03.2018 20:46 9,7 C 8,3 C 7,2 C 89 % 14 lf 993,1 hPa 0,0 l/m 0 min 2 min 0 W/m 20,3 km/h (4 Bft) 97,87 %
12.03.2018 20:48 9,7 C 8,3 C 7,2 C 89 % 15 lf 993,1 hPa 0,0 l/m 0 min 2 min 0 W/m 20,3 km/h (4 Bft) 96,30 %
12.03.2018 20:50 9,7 C 8,3 C 7,2 C 89 % 15 lf 993,1 hPa 0,0 l/m 0 min 2 min 0 W/m 22,5 km/h (4 Bft) 98,00 %
12.03.2018 20:52 9,7 C 8,3 C 7,2 C 90 % 15 lf 993,1 hPa 0,0 l/m 0 min 0 min 0 W/m 18,0 km/h (3 Bft) 97,87 %
12.03.2018 20:54 9,7 C 8,3 C 7,2 C 90 % 15 lf 993,1 hPa 0,0 l/m 0 min 0 min 0 W/m 27,0 km/h (4 Bft) 97,87 %
12.03.2018 20:56 9,6 C 8,3 C 7,2 C 90 % 14 lf 993,2 hPa 0,0 l/m 0 min 0 min 0 W/m 22,5 km/h (4 Bft) 97,22 %
12.03.2018 20:58 9,6 C 8,3 C 7,2 C 90 % 13 lf 993,2 hPa 0,0 l/m 0 min 0 min 0 W/m 24,8 km/h (4 Bft) 97,87 %
12.03.2018 21:00 9,6 C 8,3 C 7,2 C 90 % 13 lf 993,2 hPa 0,0 l/m 0 min 0 min 0 W/m 15,8 km/h (3 Bft) 97,87 %
12.03.2018 21:02 9,6 C 8,3 C 7,2 C 90 % 12 lf 993,2 hPa 0,0 l/m 0 min 0 min 0 W/m 27,0 km/h (4 Bft) 100,00 %
12.03.2018 21:04 9,5 C 8,3 C 7,2 C 90 % 9 lf 993,2 hPa 0,0 l/m 0 min 0 min 0 W/m 13,5 km/h (3 Bft) 94,55 %
12.03.2018 21:06 9,5 C 8,3 C 7,2 C 90 % 6 lf 993,2 hPa 0,0 l/m 0 min 0 min 0 W/m 18,0 km/h (3 Bft) 95,74 %
12.03.2018 21:08 9,4 C 8,3 C 7,2 C 90 % 3 lf 993,3 hPa 0,0 l/m 0 min 0 min 0 W/m 13,5 km/h (3 Bft) 95,65 %
12.03.2018 21:10 9,4 C 8,9 C 7,2 C 90 % 2 lf 993,3 hPa 0,0 l/m 0 min 0 min 0 W/m 13,5 km/h (3 Bft) 98,00 %
12.03.2018 21:12 9,4 C 8,9 C 7,2 C 91 % 1 lf 993,3 hPa 0,0 l/m 0 min 0 min 0 W/m 22,5 km/h (4 Bft) 97,87 %
12.03.2018 21:14 9,4 C 8,9 C 7,2 C 91 % 1 lf 993,4 hPa 0,0 l/m 0 min 0 min 0 W/m 20,3 km/h (4 Bft) 97,22 %
12.03.2018 21:16 9,4 C 8,9 C 7,2 C 91 % 1 lf 993,4 hPa 0,0 l/m 0 min 0 min 0 W/m 22,5 km/h (4 Bft) 97,87 %
12.03.2018 21:18 9,4 C 8,9 C 7,2 C 91 % 1 lf 993,4 hPa 0,0 l/m 0 min 0 min 0 W/m 24,8 km/h (4 Bft) 100,00 %
12.03.2018 21:20 9,4 C 8,9 C 7,2 C 91 % 1 lf 993,6 hPa 0,0 l/m 0 min 0 min 0 W/m 15,8 km/h (3 Bft) 95,74 %
12.03.2018 21:22 9,4 C 8,9 C 7,2 C 91 % 1 lf 993,4 hPa 0,0 l/m 0 min 0 min 0 W/m 24,8 km/h (4 Bft) 95,74 %
12.03.2018 21:24 9,3 C 8,9 C 7,2 C 91 % 0 lf 993,4 hPa 0,0 l/m 0 min 0 min 0 W/m 20,3 km/h (4 Bft) 97,87 %
12.03.2018 21:26 9,3 C 8,9 C 7,2 C 90 % 0 lf 993,4 hPa 0,0 l/m 0 min 0 min 0 W/m 20,3 km/h (4 Bft) 96,30 %
12.03.2018 21:28 9,3 C 8,9 C 7,2 C 91 % 0 lf 993,4 hPa 0,0 l/m 0 min 0 min 0 W/m 20,3 km/h (4 Bft) 93,62 %
12.03.2018 21:30 9,3 C 8,9 C 7,2 C 90 % 1 lf 993,4 hPa 0,0 l/m 0 min 0 min 0 W/m 15,8 km/h (3 Bft) 95,65 %
12.03.2018 21:32 9,3 C 8,9 C 7,2 C 90 % 0 lf 993,5 hPa 0,0 l/m 0 min 0 min 0 W/m 18,0 km/h (3 Bft) 92,00 %
12.03.2018 21:34 9,3 C 8,9 C 7,2 C 90 % 0 lf 993,6 hPa 0,0 l/m 0 min 0 min 0 W/m 13,5 km/h (3 Bft) 94,74 %
12.03.2018 21:36 9,3 C 8,9 C 7,2 C 90 % 0 lf 993,6 hPa 0,0 l/m 0 min 0 min 0 W/m 18,0 km/h (3 Bft) 93,62 %
12.03.2018 21:38 9,3 C 8,9 C 7,2 C 90 % 0 lf 993,6 hPa 0,0 l/m 0 min 0 min 0 W/m 27,0 km/h (4 Bft) 92,45 %
12.03.2018 21:40 9,3 C 9,4 C 7,2 C 90 % 0 lf 993,5 hPa 0,0 l/m 0 min 0 min 0 W/m 31,5 km/h (5 Bft) 94,00 %
12.03.2018 21:42 9,3 C 9,4 C 7,2 C 90 % 0 lf 993,6 hPa 0,0 l/m 0 min 0 min 0 W/m 24,8 km/h (4 Bft) 94,59 %
12.03.2018 21:44 9,3 C 9,4 C 7,2 C 90 % 0 lf 993,6 hPa 0,0 l/m 0 min 0 min 0 W/m 18,0 km/h (3 Bft) 97,87 %
12.03.2018 21:46 9,3 C 9,4 C 7,2 C 90 % 0 lf 993,6 hPa 0,0 l/m 0 min 0 min 0 W/m 18,0 km/h (3 Bft) 95,74 %
12.03.2018 21:48 9,3 C 9,4 C 7,2 C 90 % 0 lf 993,7 hPa 0,0 l/m 0 min 0 min 0 W/m 22,5 km/h (4 Bft) 94,34 %
12.03.2018 21:50 9,3 C 9,4 C 7,2 C 90 % 0 lf 993,7 hPa 0,0 l/m 0 min 0 min 0 W/m 27,0 km/h (4 Bft) 96,00 %
12.03.2018 21:52 9,4 C 9,4 C 7,2 C 90 % 0 lf 993,7 hPa 0,0 l/m 0 min 0 min 0 W/m 31,5 km/h (5 Bft) 93,62 %
12.03.2018 21:54 9,4 C 9,4 C 7,2 C 90 % 0 lf 993,7 hPa 0,0 l/m 0 min 0 min 0 W/m 18,0 km/h (3 Bft) 93,48 %
12.03.2018 21:56 9,4 C 9,4 C 7,2 C 90 % 0 lf 993,7 hPa 0,0 l/m 0 min 0 min 0 W/m 24,8 km/h (4 Bft) 94,74 %
12.03.2018 21:58 9,4 C 9,4 C 7,2 C 90 % 0 lf 993,7 hPa 0,0 l/m 0 min 0 min 0 W/m 29,3 km/h (5 Bft) 93,62 %
12.03.2018 22:00 9,4 C 9,4 C 7,2 C 90 % 0 lf 993,7 hPa 0,0 l/m 0 min 0 min 0 W/m 18,0 km/h (3 Bft) 93,48 %
12.03.2018 22:02 9,4 C 9,4 C 7,2 C 90 % 0 lf 993,8 hPa 0,0 l/m 0 min 0 min 0 W/m 20,3 km/h (4 Bft) 92,59 %
12.03.2018 22:04 9,4 C 9,4 C 7,2 C 89 % 0 lf 993,8 hPa 0,0 l/m 0 min 0 min 0 W/m 22,5 km/h (4 Bft) 93,62 %
12.03.2018 22:06 9,4 C 9,4 C 7,8 C 89 % 0 lf 993,8 hPa 0,0 l/m 0 min 0 min 0 W/m 20,3 km/h (4 Bft) 95,92 %
12.03.2018 22:08 9,5 C 9,4 C 7,8 C 89 % 0 lf 993,7 hPa 0,0 l/m 0 min 0 min 0 W/m 24,8 km/h (4 Bft) 94,74 %
12.03.2018 22:10 9,5 C 9,4 C 7,8 C 89 % 0 lf 993,8 hPa 0,0 l/m 0 min 0 min 0 W/m 27,0 km/h (4 Bft) 95,74 %
12.03.2018 22:12 9,5 C 9,4 C 7,8 C 89 % 0 lf 993,8 hPa 0,0 l/m 0 min 0 min 0 W/m 18,0 km/h (3 Bft) 93,48 %
12.03.2018 22:14 9,5 C 9,4 C 7,8 C 89 % 0 lf 993,8 hPa 0,0 l/m 0 min 0 min 0 W/m 27,0 km/h (4 Bft) 91,49 %
12.03.2018 22:16 9,5 C 9,4 C 7,8 C 89 % 0 lf 993,8 hPa 0,0 l/m 0 min 0 min 0 W/m 27,0 km/h (4 Bft) 93,62 %
12.03.2018 22:18 9,5 C 9,4 C 7,8 C 89 % 0 lf 993,8 hPa 0,0 l/m 0 min 0 min 0 W/m 22,5 km/h (4 Bft) 92,45 %
12.03.2018 22:20 9,5 C 9,4 C 7,8 C 89 % 0 lf 993,8 hPa 0,0 l/m 0 min 0 min 0 W/m 31,5 km/h (5 Bft) 95,74 %
12.03.2018 22:22 9,5 C 9,4 C 7,8 C 89 % 0 lf 993,8 hPa 0,0 l/m 0 min 0 min 0 W/m 22,5 km/h (4 Bft) 95,74 %
12.03.2018 22:24 9,6 C 9,4 C 7,8 C 89 % 0 lf 993,8 hPa 0,0 l/m 0 min 0 min 0 W/m 24,8 km/h (4 Bft) 97,87 %
12.03.2018 22:26 9,6 C 9,4 C 7,8 C 89 % 0 lf 993,8 hPa 0,0 l/m 0 min 0 min 0 W/m 24,8 km/h (4 Bft) 98,00 %
12.03.2018 22:28 9,6 C 9,4 C 7,8 C 89 % 0 lf 993,8 hPa 0,0 l/m 0 min 0 min 0 W/m 27,0 km/h (4 Bft) 94,59 %
12.03.2018 22:30 9,6 C 9,4 C 7,8 C 89 % 0 lf 993,8 hPa 0,0 l/m 0 min 0 min 0 W/m 24,8 km/h (4 Bft) 95,74 %
12.03.2018 22:32 9,6 C 9,4 C 7,8 C 89 % 3 lf 993,9 hPa 0,0 l/m 0 min 2 min 0 W/m 24,8 km/h (4 Bft) 95,83 %
12.03.2018 22:34 9,6 C 9,4 C 7,8 C 89 % 4 lf 993,9 hPa 0,0 l/m 0 min 0 min 0 W/m 29,3 km/h (5 Bft) 93,62 %
12.03.2018 22:36 9,6 C 9,4 C 7,8 C 89 % 1 lf 993,8 hPa 0,0 l/m 0 min 0 min 0 W/m 33,8 km/h (5 Bft) 94,55 %
12.03.2018 22:38 9,6 C 9,4 C 7,8 C 89 % 0 lf 993,9 hPa 0,0 l/m 0 min 0 min 0 W/m 29,3 km/h (5 Bft) 97,37 %
12.03.2018 22:40 9,6 C 9,4 C 7,8 C 89 % 0 lf 993,9 hPa 0,0 l/m 0 min 0 min 0 W/m 31,5 km/h (5 Bft) 95,74 %
12.03.2018 22:42 9,6 C 9,4 C 7,8 C 89 % 1 lf 993,9 hPa 0,0 l/m 0 min 0 min 0 W/m 33,8 km/h (5 Bft) 93,62 %
12.03.2018 22:44 9,6 C 9,4 C 7,8 C 89 % 1 lf 993,9 hPa 0,0 l/m 0 min 0 min 0 W/m 24,8 km/h (4 Bft) 94,55 %
12.03.2018 22:46 9,6 C 9,4 C 7,8 C 89 % 1 lf 993,9 hPa 0,0 l/m 0 min 0 min 0 W/m 36,0 km/h (5 Bft) 95,74 %
12.03.2018 22:48 9,6 C 9,4 C 7,8 C 89 % 1 lf 993,9 hPa 0,0 l/m 0 min 0 min 0 W/m 20,3 km/h (4 Bft) 89,47 %
12.03.2018 22:50 9,6 C 8,9 C 7,8 C 89 % 1 lf 993,9 hPa 0,0 l/m 0 min 0 min 0 W/m 24,8 km/h (4 Bft) 96,61 %
12.03.2018 22:52 9,6 C 8,9 C 7,8 C 89 % 2 lf 993,9 hPa 0,0 l/m 0 min 0 min 0 W/m 24,8 km/h (4 Bft) 94,29 %
12.03.2018 22:54 9,6 C 8,9 C 7,8 C 89 % 3 lf 994,0 hPa 0,0 l/m 0 min 0 min 0 W/m 27,0 km/h (4 Bft) 95,65 %
12.03.2018 22:56 9,6 C 8,9 C 7,8 C 89 % 8 lf 994,0 hPa 0,0 l/m 0 min 2 min 0 W/m 27,0 km/h (4 Bft) 96,00 %
12.03.2018 22:58 9,5 C 8,3 C 7,2 C 90 % 15 lf 994,0 hPa 0,0 l/m 0 min 2 min 0 W/m 22,5 km/h (4 Bft) 97,87 %
12.03.2018 23:00 9,5 C 8,3 C 7,2 C 90 % 15 lf 994,0 hPa 0,0 l/m 0 min 2 min 0 W/m 15,8 km/h (3 Bft) 95,74 %
12.03.2018 23:02 9,5 C 8,3 C 7,2 C 90 % 15 lf 994,0 hPa 0,0 l/m 0 min 2 min 0 W/m 20,3 km/h (4 Bft) 97,87 %
12.03.2018 23:04 9,4 C 8,3 C 7,2 C 90 % 15 lf 994,0 hPa 0,0 l/m 0 min 0 min 0 W/m 22,5 km/h (4 Bft) 95,74 %
12.03.2018 23:06 9,4 C 8,3 C 7,2 C 90 % 15 lf 994,1 hPa 0,0 l/m 0 min 2 min 0 W/m 15,8 km/h (3 Bft) 100,00 %
12.03.2018 23:08 9,4 C 8,3 C 7,2 C 90 % 15 lf 994,0 hPa 0,0 l/m 0 min 0 min 0 W/m 11,3 km/h (2 Bft) 97,87 %
12.03.2018 23:10 9,4 C 8,3 C 7,2 C 90 % 15 lf 994,0 hPa 0,0 l/m 0 min 0 min 0 W/m 18,0 km/h (3 Bft) 100,00 %
12.03.2018 23:12 9,4 C 8,3 C 7,2 C 91 % 15 lf 994,0 hPa 0,0 l/m 0 min 0 min 0 W/m 15,8 km/h (3 Bft) 97,87 %
12.03.2018 23:14 9,4 C 8,3 C 7,2 C 91 % 15 lf 994,0 hPa 0,0 l/m 0 min 2 min 0 W/m 29,3 km/h (5 Bft) 100,00 %
12.03.2018 23:16 9,3 C 8,3 C 7,2 C 91 % 15 lf 994,0 hPa 0,0 l/m 0 min 0 min 0 W/m 24,8 km/h (4 Bft) 97,87 %
12.03.2018 23:18 9,3 C 8,3 C 7,2 C 91 % 15 lf 994,0 hPa 0,0 l/m 0 min 0 min 0 W/m 22,5 km/h (4 Bft) 100,00 %
12.03.2018 23:20 9,3 C 8,3 C 7,2 C 91 % 15 lf 994,0 hPa 0,0 l/m 0 min 0 min 0 W/m 27,0 km/h (4 Bft) 97,87 %
12.03.2018 23:22 9,2 C 8,3 C 7,2 C 91 % 15 lf 994,0 hPa 0,0 l/m 0 min 0 min 0 W/m 11,3 km/h (2 Bft) 100,00 %
12.03.2018 23:24 9,2 C 8,3 C 7,2 C 91 % 15 lf 994,0 hPa 0,0 l/m 0 min 2 min 0 W/m 13,5 km/h (3 Bft) 100,00 %
12.03.2018 23:26 9,2 C 8,3 C 7,2 C 92 % 15 lf 994,1 hPa 0,0 l/m 0 min 2 min 0 W/m 20,3 km/h (4 Bft) 97,87 %
12.03.2018 23:28 9,2 C 7,8 C 7,2 C 92 % 15 lf 994,1 hPa 0,0 l/m 0 min 2 min 0 W/m 22,5 km/h (4 Bft) 95,74 %
12.03.2018 23:30 9,1 C 7,8 C 7,2 C 92 % 15 lf 994,0 hPa 0,0 l/m 0 min 2 min 0 W/m 18,0 km/h (3 Bft) 97,67 %
12.03.2018 23:32 9,1 C 7,8 C 7,2 C 92 % 15 lf 994,0 hPa 0,0 l/m 0 min 2 min 0 W/m 15,8 km/h (3 Bft) 100,00 %
12.03.2018 23:34 9,1 C 7,8 C 7,2 C 92 % 15 lf 994,0 hPa 0,0 l/m 0 min 0 min 0 W/m 6,8 km/h (2 Bft) 100,00 %
12.03.2018 23:36 9,1 C 7,8 C 7,2 C 92 % 15 lf 994,0 hPa 0,0 l/m 0 min 0 min 0 W/m 15,8 km/h (3 Bft) 100,00 %
12.03.2018 23:38 9,0 C 7,8 C 7,2 C 93 % 15 lf 994,0 hPa 0,2 l/m 0 min 0 min 0 W/m 15,8 km/h (3 Bft) 97,87 %
12.03.2018 23:40 9,0 C 7,8 C 7,2 C 93 % 15 lf 994,0 hPa 0,0 l/m 0 min 0 min 0 W/m 18,0 km/h (3 Bft) 100,00 %
12.03.2018 23:42 8,9 C 7,8 C 7,2 C 93 % 15 lf 994,0 hPa 0,0 l/m 0 min 0 min 0 W/m 9,0 km/h (2 Bft) 100,00 %
12.03.2018 23:44 8,9 C 7,8 C 7,2 C 93 % 15 lf 994,0 hPa 0,0 l/m 0 min 2 min 0 W/m 22,5 km/h (4 Bft) 100,00 %
12.03.2018 23:46 8,9 C 7,8 C 7,2 C 93 % 15 lf 994,0 hPa 0,0 l/m 0 min 0 min 0 W/m 15,8 km/h (3 Bft) 100,00 %
12.03.2018 23:48 8,9 C 7,8 C 7,2 C 93 % 15 lf 994,0 hPa 0,0 l/m 0 min 2 min 0 W/m 20,3 km/h (4 Bft) 100,00 %
12.03.2018 23:50 8,9 C 7,8 C 7,2 C 93 % 15 lf 994,1 hPa 0,0 l/m 0 min 0 min 0 W/m 22,5 km/h (4 Bft) 100,00 %
12.03.2018 23:52 8,9 C 7,8 C 7,2 C 93 % 15 lf 994,0 hPa 0,0 l/m 0 min 2 min 0 W/m 31,5 km/h (5 Bft) 95,74 %
12.03.2018 23:54 8,9 C 7,8 C 7,2 C 93 % 15 lf 994,0 hPa 0,0 l/m 0 min 2 min 0 W/m 31,5 km/h (5 Bft) 97,87 %
12.03.2018 23:56 8,8 C 7,8 C 7,2 C 93 % 15 lf 994,1 hPa 0,0 l/m 0 min 2 min 0 W/m 22,5 km/h (4 Bft) 93,48 %
12.03.2018 23:58 8,8 C 7,8 C 7,2 C 93 % 15 lf 994,1 hPa 0,0 l/m 0 min 2 min 0 W/m 20,3 km/h (4 Bft) 100,00 %
_ Min-Zeit 02:18 02:06 00:02 12:36 09:20 05:12 - - - - 02:52 00:02
Minimum _ 8,2 C 7,2 C 4,4 C 66 % 0 lf 990,5 hPa - - - - 2,3 km/h (1 Bft) 13,33 %
_ Max-Zeit 12:36 12:22 11:46 04:22 15:54 23:06 17:48 10:20 07:08 12:36 15:52 00:10
Maximum _ 15,7 C 23,9 C 17,8 C 97 % 15 lf 994,1 hPa 0,2 l/m 2 min 2 min 786 W/m 54,1 km/h
S (7 Bft)
100,00 %
Durchschnitt _ 10,5 C 10,8 C 9,1 C 87 % 3 lf 991,6 hPa #0,8 l/m #4:32 h #2:40 h 211 W/m 17,0 km/h (3 Bft) 96,18 %
© 2018 W. Hausmann